Observation data for Colorado City on 11/16/2019      Previous  Date       Current Mesonet Observations  Soil Data  Daily Summary Page  Observations in Plain Language
KCO2 160600Z 15006KT 04/M01 A3022 RMK A01 T00431009  RH  069%=      5-min Rain = 0
KCO2 160601Z 15006KT 04/M01 A3022 RMK A01 T00431008  RH  069%=      5-min Rain = 0
KCO2 160602Z 14006KT 04/M01 A3022 RMK A01 T00431008  RH  069%=      5-min Rain = 0
KCO2 160603Z 14006KT 04/M01 A3022 RMK A01 T00441008  RH  069%=      5-min Rain = 0
KCO2 160604Z 14006KT 04/M01 A3022 RMK A01 T00441007  RH  069%=      5-min Rain = 0
KCO2 160605Z 15006KT 05/M01 A3022 RMK A01 T00451007  RH  069%=      5-min Rain = 0
KCO2 160606Z 15006KT 05/M01 A3022 RMK A01 T00451007  RH  069%=      5-min Rain = 0
KCO2 160607Z 15006KT 05/M01 A3022 RMK A01 T00451007  RH  069%=      5-min Rain = 0
KCO2 160608Z 15006KT 05/M01 A3022 RMK A01 T00461006  RH  069%=      5-min Rain = 0
KCO2 160609Z 15006KT 05/M01 A3022 RMK A01 T00451006  RH  069%=      5-min Rain = 0
KCO2 160610Z 15006KT 05/M01 A3022 RMK A01 T00461006  RH  069%=      5-min Rain = 0
KCO2 160611Z 15006KT 05/M01 A3022 RMK A01 T00461005  RH  069%=      5-min Rain = 0
KCO2 160612Z 15006KT 05/M01 A3022 RMK A01 T00461005  RH  069%=      5-min Rain = 0
KCO2 160613Z 15006KT 05/M01 A3022 RMK A01 T00461005  RH  069%=      5-min Rain = 0
KCO2 160614Z 15006KT 05/M01 A3022 RMK A01 T00461005  RH  069%=      5-min Rain = 0
KCO2 160615Z 15006KT 05/M01 A3022 RMK A01 T00461005  RH  070%=      5-min Rain = 0
KCO2 160616Z 15006KT 05/M00 A3022 RMK A01 T00461004  RH  070%=      5-min Rain = 0
KCO2 160617Z 15006KT 05/M00 A3022 RMK A01 T00461004  RH  070%=      5-min Rain = 0
KCO2 160618Z 15006KT 05/M00 A3022 RMK A01 T00461004  RH  070%=      5-min Rain = 0
KCO2 160619Z 15006KT 05/M00 A3022 RMK A01 T00461004  RH  070%=      5-min Rain = 0
KCO2 160620Z 15006KT 05/M00 A3022 RMK A01 T00451004  RH  070%=      5-min Rain = 0
KCO2 160621Z 15006KT 05/M00 A3022 RMK A01 T00451004  RH  070%=      5-min Rain = 0
KCO2 160622Z 15006KT 05/M00 A3021 RMK A01 T00451003  RH  071%=      5-min Rain = 0
KCO2 160623Z 15006KT 05/M00 A3021 RMK A01 T00451004  RH  071%=      5-min Rain = 0
KCO2 160624Z 15006KT 04/M00 A3021 RMK A01 T00441004  RH  071%=      5-min Rain = 0
KCO2 160625Z 15005KT 04/M00 A3021 RMK A01 T00441004  RH  071%=      5-min Rain = 0
KCO2 160626Z 15005KT 04/M00 A3021 RMK A01 T00431004  RH  071%=      5-min Rain = 0
KCO2 160627Z 15005KT 04/M00 A3021 RMK A01 T00431004  RH  072%=      5-min Rain = 0
KCO2 160628Z 15005KT 04/M00 A3021 RMK A01 T00421004  RH  072%=      5-min Rain = 0
KCO2 160629Z 15005KT 04/M01 A3021 RMK A01 T00411005  RH  072%=      5-min Rain = 0
KCO2 160630Z 15005KT 04/M01 A3021 RMK A01 T00411005  RH  072%=      5-min Rain = 0
KCO2 160631Z 15005KT 04/M01 A3021 RMK A01 T00401005  RH  073%=      5-min Rain = 0
KCO2 160632Z 15005KT 04/M01 A3021 RMK A01 T00391005  RH  073%=      5-min Rain = 0
KCO2 160633Z 15006KT 04/M01 A3021 RMK A01 T00381005  RH  073%=      5-min Rain = 0
KCO2 160634Z 15006KT 04/M01 A3021 RMK A01 T00381005  RH  074%=      5-min Rain = 0
KCO2 160635Z 14006KT 04/M01 A3021 RMK A01 T00381005  RH  074%=      5-min Rain = 0
KCO2 160636Z 15006KT 04/M01 A3021 RMK A01 T00371005  RH  074%=      5-min Rain = 0
KCO2 160637Z 15006KT 04/M00 A3021 RMK A01 T00371004  RH  074%=      5-min Rain = 0
KCO2 160638Z 15006KT 04/M01 A3021 RMK A01 T00371005  RH  074%=      5-min Rain = 0
KCO2 160639Z 15006KT 04/M01 A3021 RMK A01 T00371005  RH  074%=      5-min Rain = 0
KCO2 160640Z 15006KT 04/M01 A3021 RMK A01 T00371005  RH  074%=      5-min Rain = 0
KCO2 160641Z 15006KT 04/M00 A3021 RMK A01 T00371004  RH  074%=      5-min Rain = 0
KCO2 160642Z 15006KT 04/M00 A3021 RMK A01 T00371004  RH  074%=      5-min Rain = 0
KCO2 160643Z 15006KT 04/M00 A3021 RMK A01 T00371004  RH  074%=      5-min Rain = 0
KCO2 160644Z 15006KT 04/M00 A3021 RMK A01 T00371004  RH  074%=      5-min Rain = 0
KCO2 160645Z 15006KT 04/M00 A3021 RMK A01 T00371004  RH  074%=      5-min Rain = 0
KCO2 160646Z 15006KT 04/M00 A3021 RMK A01 T00371004  RH  074%=      5-min Rain = 0
KCO2 160647Z 15006KT 04/M00 A3021 RMK A01 T00371004  RH  074%=      5-min Rain = 0
KCO2 160648Z 15006KT 04/M00 A3021 RMK A01 T00381004  RH  074%=      5-min Rain = 0
KCO2 160649Z 15006KT 04/M00 A3021 RMK A01 T00381004  RH  074%=      5-min Rain = 0
KCO2 160650Z 15006KT 04/M00 A3021 RMK A01 T00381004  RH  074%=      5-min Rain = 0
KCO2 160651Z 15005KT 04/M00 A3021 RMK A01 T00381004  RH  074%=      5-min Rain = 0
KCO2 160652Z 15006KT 04/M00 A3021 RMK A01 T00381004  RH  074%=      5-min Rain = 0
KCO2 160653Z 15005KT 04/M00 A3021 RMK A01 T00391004  RH  074%=      5-min Rain = 0
KCO2 160654Z 15005KT 04/M00 A3021 RMK A01 T00391004  RH  074%=      5-min Rain = 0
KCO2 160655Z 15005KT 04/M00 A3021 RMK A01 T00381004  RH  074%=      5-min Rain = 0
KCO2 160656Z 15005KT 04/M00 A3021 RMK A01 T00381004  RH  074%=      5-min Rain = 0
KCO2 160657Z 15005KT 04/M00 A3021 RMK A01 T00381004  RH  074%=      5-min Rain = 0
KCO2 160658Z 15005KT 04/M00 A3021 RMK A01 T00381004  RH  074%=      5-min Rain = 0
KCO2 160659Z 15005KT 04/M00 A3021 RMK A01 T00381004  RH  074%=      5-min Rain = 0
KCO2 160700Z 15005KT 04/M00 A3021 RMK A01 T00381004  RH  074%=      5-min Rain = 0
KCO2 160701Z 15005KT 04/M00 A3021 RMK A01 T00381004  RH  074%=      5-min Rain = 0
KCO2 160702Z 15005KT 04/M00 A3021 RMK A01 T00381004  RH  074%=      5-min Rain = 0
KCO2 160703Z 15006KT 04/M00 A3021 RMK A01 T00371004  RH  074%=      5-min Rain = 0
KCO2 160704Z 16006KT 04/M00 A3021 RMK A01 T00371004  RH  074%=      5-min Rain = 0
KCO2 160705Z 16006KT 04/M01 A3021 RMK A01 T00371005  RH  074%=      5-min Rain = 0
KCO2 160706Z 16006KT 04/M01 A3021 RMK A01 T00371005  RH  074%=      5-min Rain = 0
KCO2 160707Z 16006KT 04/M01 A302 RMK A01 T00371005  RH  074%=      5-min Rain = 0
KCO2 160708Z 16006KT 04/M01 A302 RMK A01 T00381005  RH  074%=      5-min Rain = 0
KCO2 160709Z 16006KT 04/M01 A302 RMK A01 T00381005  RH  074%=      5-min Rain = 0
KCO2 160710Z 16006KT 04/M00 A302 RMK A01 T00391004  RH  074%=      5-min Rain = 0
KCO2 160711Z 15006KT 04/M00 A302 RMK A01 T00391004  RH  074%=      5-min Rain = 0
KCO2 160712Z 16007KT 04/M00 A302 RMK A01 T00401004  RH  073%=      5-min Rain = 0
KCO2 160713Z 15007KT 04/M00 A302 RMK A01 T00401004  RH  073%=      5-min Rain = 0
KCO2 160714Z 15007KT 04/M00 A302 RMK A01 T00411003  RH  073%=      5-min Rain = 0
KCO2 160715Z 15006KT 04/M00 A302 RMK A01 T00421003  RH  072%=      5-min Rain = 0
KCO2 160716Z 15006KT 04/M00 A302 RMK A01 T00431003  RH  072%=      5-min Rain = 0
KCO2 160717Z 16006KT 04/M00 A302 RMK A01 T00431003  RH  072%=      5-min Rain = 0
KCO2 160718Z 16006KT 04/M00 A302 RMK A01 T00431003  RH  072%=      5-min Rain = 0
KCO2 160719Z 15006KT 04/M00 A302 RMK A01 T00431003  RH  072%=      5-min Rain = 0
KCO2 160720Z 16006KT 04/M00 A302 RMK A01 T00431003  RH  072%=      5-min Rain = 0
KCO2 160721Z 16006KT 04/M00 A302 RMK A01 T00431003  RH  072%=      5-min Rain = 0
KCO2 160722Z 16006KT 04/M00 A302 RMK A01 T00431003  RH  072%=      5-min Rain = 0
KCO2 160723Z 16006KT 04/M00 A302 RMK A01 T00431003  RH  072%=      5-min Rain = 0
KCO2 160724Z 16006KT 04/M00 A302 RMK A01 T00421003  RH  072%=      5-min Rain = 0
KCO2 160725Z 16006KT 04/M00 A302 RMK A01 T00421003  RH  072%=      5-min Rain = 0
KCO2 160726Z 16006KT 04/M00 A302 RMK A01 T00421004  RH  072%=      5-min Rain = 0
KCO2 160727Z 16006KT 04/M00 A302 RMK A01 T00421004  RH  072%=      5-min Rain = 0
KCO2 160728Z 16006KT 04/M00 A302 RMK A01 T00421004  RH  072%=      5-min Rain = 0
KCO2 160729Z 16006KT 04/M00 A302 RMK A01 T00421004  RH  072%=      5-min Rain = 0
KCO2 160730Z 16006KT 04/M00 A302 RMK A01 T00421004  RH  072%=      5-min Rain = 0
KCO2 160731Z 16006KT 04/M00 A302 RMK A01 T00421004  RH  072%=      5-min Rain = 0
KCO2 160732Z 16006KT 04/M00 A302 RMK A01 T00421004  RH  072%=      5-min Rain = 0
KCO2 160733Z 16006KT 04/M00 A302 RMK A01 T00421004  RH  072%=      5-min Rain = 0
KCO2 160734Z 15006KT 04/M00 A302 RMK A01 T00421004  RH  072%=      5-min Rain = 0
KCO2 160735Z 16006KT 04/M00 A302 RMK A01 T00421004  RH  072%=      5-min Rain = 0
KCO2 160736Z 15005KT 04/M00 A302 RMK A01 T00411004  RH  072%=      5-min Rain = 0
KCO2 160737Z 15005KT 04/M01 A302 RMK A01 T00401005  RH  073%=      5-min Rain = 0
KCO2 160738Z 15005KT 04/M00 A302 RMK A01 T00401004  RH  073%=      5-min Rain = 0
KCO2 160739Z 15005KT 04/M01 A302 RMK A01 T00391005  RH  073%=      5-min Rain = 0
KCO2 160740Z 15006KT 04/M01 A302 RMK A01 T00391005  RH  073%=      5-min Rain = 0
KCO2 160741Z 15006KT 04/M01 A302 RMK A01 T00381005  RH  073%=      5-min Rain = 0
KCO2 160742Z 15006KT 04/M01 A302 RMK A01 T00381005  RH  074%=      5-min Rain = 0
KCO2 160743Z 15006KT 04/M01 A302 RMK A01 T00381005  RH  074%=      5-min Rain = 0
KCO2 160744Z 15005KT 04/M01 A302 RMK A01 T00371005  RH  074%=      5-min Rain = 0
KCO2 160745Z 15006KT 04/M01 A302 RMK A01 T00371005  RH  074%=      5-min Rain = 0
KCO2 160746Z 15006KT 04/M01 A302 RMK A01 T00371005  RH  074%=      5-min Rain = 0
KCO2 160747Z 15006KT 04/M01 A302 RMK A01 T00371005  RH  074%=      5-min Rain = 0
KCO2 160748Z 15005KT 04/M01 A302 RMK A01 T00371005  RH  074%=      5-min Rain = 0
KCO2 160749Z 15006KT 04/M00 A302 RMK A01 T00381004  RH  074%=      5-min Rain = 0
KCO2 160750Z 15006KT 04/M00 A302 RMK A01 T00381004  RH  074%=      5-min Rain = 0
KCO2 160751Z 15006KT 04/M00 A302 RMK A01 T00391004  RH  074%=      5-min Rain = 0
KCO2 160752Z 15006KT 04/M00 A302 RMK A01 T00391004  RH  074%=      5-min Rain = 0
KCO2 160753Z 15005KT 04/M00 A302 RMK A01 T00401003  RH  073%=      5-min Rain = 0
KCO2 160754Z 15006KT 04/M00 A302 RMK A01 T00411003  RH  073%=      5-min Rain = 0
KCO2 160755Z 15005KT 04/M00 A302 RMK A01 T00411003  RH  073%=      5-min Rain = 0
KCO2 160756Z 15005KT 04/M00 A302 RMK A01 T00411003  RH  073%=      5-min Rain = 0
KCO2 160757Z 15005KT 04/M00 A302 RMK A01 T00411003  RH  073%=      5-min Rain = 0
KCO2 160758Z 15005KT 04/M00 A302 RMK A01 T00411004  RH  072%=      5-min Rain = 0
KCO2 160759Z 15005KT 04/M00 A302 RMK A01 T00411004  RH  073%=      5-min Rain = 0
KCO2 160800Z 15005KT 04/M00 A302 RMK A01 T00411003  RH  073%=      5-min Rain = 0
KCO2 160801Z 15005KT 04/M00 A302 RMK A01 T00411004  RH  073%=      5-min Rain = 0
KCO2 160802Z 15005KT 04/M00 A302 RMK A01 T00401004  RH  073%=      5-min Rain = 0
KCO2 160803Z 15005KT 04/M00 A302 RMK A01 T00391004  RH  073%=      5-min Rain = 0
KCO2 160804Z 15004KT 04/M00 A302 RMK A01 T00381004  RH  074%=      5-min Rain = 0
KCO2 160805Z 15004KT 04/M00 A302 RMK A01 T00381004  RH  074%=      5-min Rain = 0
KCO2 160806Z 15005KT 04/M00 A302 RMK A01 T00381004  RH  074%=      5-min Rain = 0
KCO2 160807Z 16005KT 04/M00 A302 RMK A01 T00371004  RH  074%=      5-min Rain = 0
KCO2 160808Z 15005KT 04/M00 A302 RMK A01 T00371004  RH  074%=      5-min Rain = 0
KCO2 160809Z 16005KT 04/M00 A302 RMK A01 T00371004  RH  074%=      5-min Rain = 0
KCO2 160810Z 16005KT 04/M00 A302 RMK A01 T00371004  RH  074%=      5-min Rain = 0
KCO2 160811Z 15005KT 04/M01 A302 RMK A01 T00371005  RH  074%=      5-min Rain = 0
KCO2 160812Z 15006KT 04/M01 A302 RMK A01 T00361005  RH  075%=      5-min Rain = 0
KCO2 160813Z 15005KT 04/M01 A302 RMK A01 T00361005  RH  075%=      5-min Rain = 0
KCO2 160814Z 15005KT 04/M01 A302 RMK A01 T00361005  RH  075%=      5-min Rain = 0
KCO2 160815Z 15005KT 04/M01 A302 RMK A01 T00361005  RH  075%=      5-min Rain = 0
KCO2 160816Z 15006KT 04/M01 A302 RMK A01 T00361005  RH  075%=      5-min Rain = 0
KCO2 160817Z 15005KT 04/M01 A302 RMK A01 T00361005  RH  075%=      5-min Rain = 0
KCO2 160818Z 15005KT 04/M01 A302 RMK A01 T00361005  RH  075%=      5-min Rain = 0
KCO2 160819Z 15005KT 04/M00 A302 RMK A01 T00361004  RH  075%=      5-min Rain = 0
KCO2 160820Z 15005KT 04/M01 A302 RMK A01 T00361005  RH  075%=      5-min Rain = 0
KCO2 160821Z 15005KT 04/M01 A302 RMK A01 T00361005  RH  075%=      5-min Rain = 0
KCO2 160822Z 15004KT 04/M00 A302 RMK A01 T00361004  RH  075%=      5-min Rain = 0
KCO2 160823Z 35002KT 04/M00 A302 RMK A01 T00371003  RH  075%=      5-min Rain = 0
KCO2 160824Z 35003KT 04/M00 A302 RMK A01 T00361004  RH  075%=      5-min Rain = 0
KCO2 160825Z 33001KT 04/M00 A302 RMK A01 T00361004  RH  075%=      5-min Rain = 0
KCO2 160826Z 34002KT 04/M00 A302 RMK A01 T00351004  RH  075%=      5-min Rain = 0
KCO2 160827Z 33001KT 04/M00 A302 RMK A01 T00351004  RH  075%=      5-min Rain = 0
KCO2 160828Z 34002KT 04/M00 A302 RMK A01 T00361004  RH  075%=      5-min Rain = 0
KCO2 160829Z 34002KT 04/M00 A302 RMK A01 T00361004  RH  075%=      5-min Rain = 0
KCO2 160830Z 16003KT 04/M00 A302 RMK A01 T00361004  RH  075%=      5-min Rain = 0
KCO2 160831Z 16004KT 04/M00 A302 RMK A01 T00361004  RH  075%=      5-min Rain = 0
KCO2 160832Z 16005KT 04/M00 A302 RMK A01 T00361004  RH  075%=      5-min Rain = 0
KCO2 160833Z 16005KT 04/M00 A302 RMK A01 T00361004  RH  075%=      5-min Rain = 0
KCO2 160834Z 16005KT 04/M00 A302 RMK A01 T00361004  RH  075%=      5-min Rain = 0
KCO2 160835Z 16005KT 04/M00 A302 RMK A01 T00371004  RH  075%=      5-min Rain = 0
KCO2 160836Z 16005KT 04/M01 A302 RMK A01 T00371005  RH  074%=      5-min Rain = 0
KCO2 160837Z 16005KT 04/M01 A302 RMK A01 T00361005  RH  074%=      5-min Rain = 0
KCO2 160838Z 16005KT 04/M01 A302 RMK A01 T00361005  RH  074%=      5-min Rain = 0
KCO2 160839Z 16005KT 04/M01 A302 RMK A01 T00351006  RH  074%=      5-min Rain = 0
KCO2 160840Z 16005KT 04/M01 A302 RMK A01 T00351006  RH  075%=      5-min Rain = 0
KCO2 160841Z 16005KT 03/M01 A302 RMK A01 T00341006  RH  075%=      5-min Rain = 0
KCO2 160842Z 16006KT 03/M01 A302 RMK A01 T00341005  RH  075%=      5-min Rain = 0
KCO2 160843Z 16006KT 03/M01 A302 RMK A01 T00341005  RH  075%=      5-min Rain = 0
KCO2 160844Z 16005KT 03/M01 A302 RMK A01 T00341005  RH  075%=      5-min Rain = 0
KCO2 160845Z 16006KT 03/M01 A302 RMK A01 T00341005  RH  076%=      5-min Rain = 0
KCO2 160846Z 16005KT 03/M01 A302 RMK A01 T00331005  RH  076%=      5-min Rain = 0
KCO2 160847Z 16005KT 03/M01 A302 RMK A01 T00331006  RH  076%=      5-min Rain = 0
KCO2 160848Z 16005KT 03/M01 A302 RMK A01 T00331005  RH  076%=      5-min Rain = 0
KCO2 160849Z 16005KT 03/M01 A302 RMK A01 T00331005  RH  076%=      5-min Rain = 0
KCO2 160850Z 16005KT 03/M01 A302 RMK A01 T00331005  RH  076%=      5-min Rain = 0
KCO2 160851Z 16005KT 03/M01 A302 RMK A01 T00331005  RH  076%=      5-min Rain = 0
KCO2 160852Z 16005KT 03/M01 A302 RMK A01 T00331006  RH  076%=      5-min Rain = 0
KCO2 160853Z 16006KT 03/M01 A302 RMK A01 T00331006  RH  076%=      5-min Rain = 0
KCO2 160854Z 17005KT 03/M01 A3019 RMK A01 T00341006  RH  075%=      5-min Rain = 0
KCO2 160855Z 16006KT 04/M01 A3019 RMK A01 T00351006  RH  075%=      5-min Rain = 0
KCO2 160856Z 17006KT 04/M01 A3019 RMK A01 T00351006  RH  075%=      5-min Rain = 0
KCO2 160857Z 17006KT 04/M01 A3019 RMK A01 T00351006  RH  075%=      5-min Rain = 0
KCO2 160858Z 16006KT 04/M01 A3019 RMK A01 T00351005  RH  075%=      5-min Rain = 0
KCO2 160859Z 16006KT 04/M01 A3019 RMK A01 T00351006  RH  075%=      5-min Rain = 0
KCO2 160900Z 16006KT 04/M01 A3019 RMK A01 T00351006  RH  074%=      5-min Rain = 0
KCO2 160901Z 16006KT 04/M01 A3019 RMK A01 T00351006  RH  075%=      5-min Rain = 0
KCO2 160902Z 16006KT 04/M01 A3019 RMK A01 T00351005  RH  075%=      5-min Rain = 0
KCO2 160903Z 16006KT 04/M01 A3019 RMK A01 T00361005  RH  075%=      5-min Rain = 0
KCO2 160904Z 16006KT 04/M01 A3019 RMK A01 T00361005  RH  075%=      5-min Rain = 0
KCO2 160905Z 16006KT 04/M01 A3019 RMK A01 T00371005  RH  074%=      5-min Rain = 0
KCO2 160906Z 16006KT 04/M01 A3019 RMK A01 T00371005  RH  074%=      5-min Rain = 0
KCO2 160907Z 16006KT 04/M01 A3019 RMK A01 T00371005  RH  074%=      5-min Rain = 0
KCO2 160908Z 16006KT 04/M01 A3019 RMK A01 T00371005  RH  074%=      5-min Rain = 0
KCO2 160909Z 16007KT 04/M01 A3019 RMK A01 T00381005  RH  074%=      5-min Rain = 0
KCO2 160910Z 16007KT 04/M01 A3019 RMK A01 T00381005  RH  074%=      5-min Rain = 0
KCO2 160911Z 16007KT 04/M01 A3019 RMK A01 T00381005  RH  074%=      5-min Rain = 0
KCO2 160912Z 16006KT 04/M00 A3019 RMK A01 T00391004  RH  073%=      5-min Rain = 0
KCO2 160913Z 16006KT 04/M01 A3019 RMK A01 T00391005  RH  073%=      5-min Rain = 0
KCO2 160914Z 16006KT 04/M00 A3019 RMK A01 T00401004  RH  073%=      5-min Rain = 0
KCO2 160915Z 16006KT 04/M01 A3019 RMK A01 T00401005  RH  073%=      5-min Rain = 0
KCO2 160916Z 16006KT 04/M01 A3019 RMK A01 T00401005  RH  073%=      5-min Rain = 0
KCO2 160917Z 16006KT 04/M01 A3019 RMK A01 T00401005  RH  072%=      5-min Rain = 0
KCO2 160918Z 16006KT 04/M01 A3019 RMK A01 T00411005  RH  072%=      5-min Rain = 0
KCO2 160919Z 16006KT 04/M01 A3019 RMK A01 T00401005  RH  072%=      5-min Rain = 0
KCO2 160920Z 16006KT 04/M00 A3019 RMK A01 T00411004  RH  072%=      5-min Rain = 0
KCO2 160921Z 16006KT 04/M01 A3019 RMK A01 T00401005  RH  072%=      5-min Rain = 0
KCO2 160922Z 16006KT 04/M01 A3019 RMK A01 T00401005  RH  072%=      5-min Rain = 0
KCO2 160923Z 16006KT 04/M01 A3019 RMK A01 T00401005  RH  072%=      5-min Rain = 0
KCO2 160924Z 16006KT 04/M01 A3019 RMK A01 T00391006  RH  072%=      5-min Rain = 0
KCO2 160925Z 15006KT 04/M01 A3019 RMK A01 T00391006  RH  073%=      5-min Rain = 0
KCO2 160926Z 15006KT 04/M01 A3019 RMK A01 T00391006  RH  073%=      5-min Rain = 0
KCO2 160927Z 15006KT 04/M01 A3019 RMK A01 T00391006  RH  073%=      5-min Rain = 0
KCO2 160928Z 15006KT 04/M01 A3019 RMK A01 T00391006  RH  073%=      5-min Rain = 0
KCO2 160929Z 15006KT 04/M01 A3019 RMK A01 T00391005  RH  073%=      5-min Rain = 0
KCO2 160930Z 15006KT 04/M01 A3019 RMK A01 T00391005  RH  073%=      5-min Rain = 0
KCO2 160931Z 15006KT 04/M01 A3019 RMK A01 T00391005  RH  073%=      5-min Rain = 0
KCO2 160932Z 15006KT 04/M01 A3019 RMK A01 T00391005  RH  073%=      5-min Rain = 0
KCO2 160933Z 15006KT 04/M01 A3019 RMK A01 T00391005  RH  073%=      5-min Rain = 0
KCO2 160934Z 15005KT 04/M01 A3019 RMK A01 T00391005  RH  073%=      5-min Rain = 0
KCO2 160935Z 15005KT 04/M01 A3019 RMK A01 T00391005  RH  073%=      5-min Rain = 0
KCO2 160936Z 15005KT 04/M01 A3019 RMK A01 T00391005  RH  073%=      5-min Rain = 0
KCO2 160937Z 15005KT 04/M01 A3019 RMK A01 T00381005  RH  073%=      5-min Rain = 0
KCO2 160938Z 15005KT 04/M01 A3019 RMK A01 T00371006  RH  074%=      5-min Rain = 0
KCO2 160939Z 15005KT 04/M01 A3019 RMK A01 T00361006  RH  074%=      5-min Rain = 0
KCO2 160940Z 15005KT 04/M01 A3019 RMK A01 T00361006  RH  074%=      5-min Rain = 0
KCO2 160941Z 15005KT 04/M01 A3019 RMK A01 T00351005  RH  075%=      5-min Rain = 0
KCO2 160942Z 15005KT 04/M01 A3019 RMK A01 T00351006  RH  075%=      5-min Rain = 0
KCO2 160943Z 15005KT 04/M01 A3019 RMK A01 T00351006  RH  075%=      5-min Rain = 0
KCO2 160944Z 15005KT 03/M01 A3019 RMK A01 T00341006  RH  075%=      5-min Rain = 0
KCO2 160945Z 15005KT 04/M01 A3019 RMK A01 T00351006  RH  075%=      5-min Rain = 0
KCO2 160946Z 15006KT 03/M01 A3019 RMK A01 T00341007  RH  075%=      5-min Rain = 0
KCO2 160947Z 15006KT 03/M01 A3018 RMK A01 T00341007  RH  075%=      5-min Rain = 0
KCO2 160948Z 15006KT 03/M01 A3018 RMK A01 T00341007  RH  075%=      5-min Rain = 0
KCO2 160949Z 15005KT 03/M01 A3018 RMK A01 T00341007  RH  075%=      5-min Rain = 0
KCO2 160950Z 15005KT 03/M01 A3018 RMK A01 T00341007  RH  075%=      5-min Rain = 0
KCO2 160951Z 15005KT 03/M01 A3018 RMK A01 T00331007  RH  075%=      5-min Rain = 0
KCO2 160952Z 15005KT 03/M01 A3018 RMK A01 T00331007  RH  075%=      5-min Rain = 0
KCO2 160953Z 15006KT 03/M01 A3018 RMK A01 T00331007  RH  075%=      5-min Rain = 0
KCO2 160954Z 15006KT 03/M01 A3018 RMK A01 T00321007  RH  075%=      5-min Rain = 0
KCO2 160955Z 15006KT 03/M01 A3018 RMK A01 T00321007  RH  076%=      5-min Rain = 0
KCO2 160956Z 15006KT 03/M01 A3018 RMK A01 T00311007  RH  076%=      5-min Rain = 0
KCO2 160957Z 15006KT 03/M01 A3018 RMK A01 T00311007  RH  076%=      5-min Rain = 0
KCO2 160958Z 15005KT 03/M01 A3018 RMK A01 T00301007  RH  076%=      5-min Rain = 0
KCO2 160959Z 14006KT 03/M01 A3018 RMK A01 T00301007  RH  077%=      5-min Rain = 0
KCO2 161000Z 15006KT 03/M01 A3018 RMK A01 T00291007  RH  077%=      5-min Rain = 0
KCO2 161001Z 15006KT 03/M01 A3018 RMK A01 T00291007  RH  077%=      5-min Rain = 0
KCO2 161002Z 15006KT 03/M01 A3018 RMK A01 T00291007  RH  077%=      5-min Rain = 0
KCO2 161003Z 15006KT 03/M01 A3018 RMK A01 T00291007  RH  078%=      5-min Rain = 0
KCO2 161004Z 15006KT 03/M01 A3018 RMK A01 T00281007  RH  078%=      5-min Rain = 0
KCO2 161005Z 15006KT 03/M01 A3018 RMK A01 T00281007  RH  078%=      5-min Rain = 0
KCO2 161006Z 15007KT 03/M01 A3018 RMK A01 T00281007  RH  078%=      5-min Rain = 0
KCO2 161007Z 15007KT 03/M01 A3018 RMK A01 T00281006  RH  078%=      5-min Rain = 0
KCO2 161008Z 15006KT 03/M01 A3018 RMK A01 T00291006  RH  078%=      5-min Rain = 0
KCO2 161009Z 15006KT 03/M01 A3018 RMK A01 T00291006  RH  078%=      5-min Rain = 0
KCO2 161010Z 15006KT 03/M01 A3018 RMK A01 T00291006  RH  078%=      5-min Rain = 0
KCO2 161011Z 15006KT 03/M01 A3018 RMK A01 T00301006  RH  077%=      5-min Rain = 0
KCO2 161012Z 15006KT 03/M01 A3018 RMK A01 T00301006  RH  077%=      5-min Rain = 0
KCO2 161013Z 15006KT 03/M01 A3018 RMK A01 T00301006  RH  077%=      5-min Rain = 0
KCO2 161014Z 15006KT 03/M01 A3018 RMK A01 T00301006  RH  077%=      5-min Rain = 0
KCO2 161015Z 15006KT 03/M01 A3018 RMK A01 T00291006  RH  077%=      5-min Rain = 0
KCO2 161016Z 15006KT 03/M01 A3018 RMK A01 T00291007  RH  077%=      5-min Rain = 0
KCO2 161017Z 15006KT 03/M01 A3018 RMK A01 T00291007  RH  077%=      5-min Rain = 0
KCO2 161018Z 15006KT 03/M01 A3018 RMK A01 T00281007  RH  078%=      5-min Rain = 0
KCO2 161019Z 15006KT 03/M01 A3018 RMK A01 T00271007  RH  078%=      5-min Rain = 0
KCO2 161020Z 15007KT 03/M01 A3018 RMK A01 T00271007  RH  078%=      5-min Rain = 0
KCO2 161021Z 15007KT 03/M01 A3018 RMK A01 T00271007  RH  078%=      5-min Rain = 0
KCO2 161022Z 15006KT 03/M01 A3018 RMK A01 T00271007  RH  078%=      5-min Rain = 0
KCO2 161023Z 15006KT 03/M01 A3018 RMK A01 T00281007  RH  078%=      5-min Rain = 0
KCO2 161024Z 15006KT 03/M01 A3018 RMK A01 T00281007  RH  078%=      5-min Rain = 0
KCO2 161025Z 15007KT 03/M01 A3018 RMK A01 T00281007  RH  078%=      5-min Rain = 0
KCO2 161026Z 15007KT 03/M01 A3018 RMK A01 T00281007  RH  078%=      5-min Rain = 0
KCO2 161027Z 15006KT 03/M01 A3018 RMK A01 T00281007  RH  078%=      5-min Rain = 0
KCO2 161028Z 15006KT 03/M01 A3018 RMK A01 T00291006  RH  078%=      5-min Rain = 0
KCO2 161029Z 15006KT 03/M01 A3018 RMK A01 T00291007  RH  078%=      5-min Rain = 0
KCO2 161030Z 15006KT 03/M01 A3018 RMK A01 T00281007  RH  077%=      5-min Rain = 0
KCO2 161031Z 15007KT 03/M01 A3018 RMK A01 T00291007  RH  078%=      5-min Rain = 0
KCO2 161032Z 15006KT 03/M01 A3018 RMK A01 T00281007  RH  078%=      5-min Rain = 0
KCO2 161033Z 15006KT 03/M01 A3018 RMK A01 T00281006  RH  078%=      5-min Rain = 0
KCO2 161034Z 15006KT 03/M01 A3018 RMK A01 T00271007  RH  078%=      5-min Rain = 0
KCO2 161035Z 16006KT 03/M01 A3018 RMK A01 T00281007  RH  078%=      5-min Rain = 0
KCO2 161036Z 16006KT 03/M01 A3018 RMK A01 T00281007  RH  078%=      5-min Rain = 0
KCO2 161037Z 16006KT 03/M01 A3018 RMK A01 T00281007  RH  078%=      5-min Rain = 0
KCO2 161038Z 16006KT 03/M01 A3018 RMK A01 T00281007  RH  078%=      5-min Rain = 0
KCO2 161039Z 16007KT 03/M01 A3018 RMK A01 T00281006  RH  078%=      5-min Rain = 0
KCO2 161040Z 16007KT 03/M01 A3018 RMK A01 T00291006  RH  078%=      5-min Rain = 0
KCO2 161041Z 16007KT 03/M01 A3018 RMK A01 T00301005  RH  078%=      5-min Rain = 0
KCO2 161042Z 16007KT 03/M01 A3018 RMK A01 T00301005  RH  078%=      5-min Rain = 0
KCO2 161043Z 16006KT 03/M01 A3018 RMK A01 T00311005  RH  077%=      5-min Rain = 0
KCO2 161044Z 16006KT 03/M01 A3018 RMK A01 T00311005  RH  077%=      5-min Rain = 0
KCO2 161045Z 16007KT 03/M01 A3018 RMK A01 T00311005  RH  077%=      5-min Rain = 0
KCO2 161046Z 16007KT 03/M01 A3018 RMK A01 T00311005  RH  077%=      5-min Rain = 0
KCO2 161047Z 16007KT 03/M01 A3018 RMK A01 T00311005  RH  077%=      5-min Rain = 0
KCO2 161048Z 16007KT 03/M01 A3018 RMK A01 T00311005  RH  077%=      5-min Rain = 0
KCO2 161049Z 16007KT 03/M01 A3018 RMK A01 T00311005  RH  077%=      5-min Rain = 0
KCO2 161050Z 16007KT 03/M01 A3018 RMK A01 T00311005  RH  077%=      5-min Rain = 0
KCO2 161051Z 16007KT 03/M01 A3018 RMK A01 T00311005  RH  077%=      5-min Rain = 0
KCO2 161052Z 16007KT 03/M01 A3018 RMK A01 T00311006  RH  077%=      5-min Rain = 0
KCO2 161053Z 16007KT 03/M01 A3018 RMK A01 T00311006  RH  077%=      5-min Rain = 0
KCO2 161054Z 16007KT 03/M01 A3018 RMK A01 T00301006  RH  077%=      5-min Rain = 0
KCO2 161055Z 16007KT 03/M01 A3018 RMK A01 T00301005  RH  077%=      5-min Rain = 0
KCO2 161056Z 16007KT 03/M01 A3018 RMK A01 T00301005  RH  077%=      5-min Rain = 0
KCO2 161057Z 16007KT 03/M01 A3018 RMK A01 T00301005  RH  077%=      5-min Rain = 0
KCO2 161058Z 16007KT 03/M01 A3018 RMK A01 T00301005  RH  077%=      5-min Rain = 0
KCO2 161059Z 16007KT 03/M01 A3018 RMK A01 T00301005  RH  077%=      5-min Rain = 0
KCO2 161100Z 16007KT 03/M01 A3018 RMK A01 T00301005  RH  077%=      5-min Rain = 0
KCO2 161101Z 16007KT 03/M01 A3018 RMK A01 T00311005  RH  077%=      5-min Rain = 0
KCO2 161102Z 16007KT 03/M01 A3018 RMK A01 T00311005  RH  077%=      5-min Rain = 0
KCO2 161103Z 16007KT 03/M01 A3018 RMK A01 T00311005  RH  077%=      5-min Rain = 0
KCO2 161104Z 16007KT 03/M01 A3018 RMK A01 T00311005  RH  077%=      5-min Rain = 0
KCO2 161105Z 16007KT 03/M01 A3018 RMK A01 T00311005  RH  077%=      5-min Rain = 0
KCO2 161106Z 16006KT 03/M01 A3018 RMK A01 T00301006  RH  077%=      5-min Rain = 0
KCO2 161107Z 16006KT 03/M01 A3018 RMK A01 T00301006  RH  077%=      5-min Rain = 0
KCO2 161108Z 16006KT 03/M01 A3018 RMK A01 T00301006  RH  077%=      5-min Rain = 0
KCO2 161109Z 16006KT 03/M01 A3018 RMK A01 T00301006  RH  077%=      5-min Rain = 0
KCO2 161110Z 16007KT 03/M01 A3018 RMK A01 T00291006  RH  077%=      5-min Rain = 0
KCO2 161111Z 16007KT 03/M01 A3018 RMK A01 T00291006  RH  078%=      5-min Rain = 0
KCO2 161112Z 16007KT 03/M01 A3018 RMK A01 T00291006  RH  078%=      5-min Rain = 0
KCO2 161113Z 16006KT 03/M01 A3018 RMK A01 T00301006  RH  078%=      5-min Rain = 0
KCO2 161114Z 16006KT 03/M01 A3018 RMK A01 T00301006  RH  077%=      5-min Rain = 0
KCO2 161115Z 16006KT 03/M01 A3018 RMK A01 T00301006  RH  077%=      5-min Rain = 0
KCO2 161116Z 16006KT 03/M01 A3018 RMK A01 T00301006  RH  077%=      5-min Rain = 0
KCO2 161117Z 16006KT 03/M01 A3018 RMK A01 T00291006  RH  077%=      5-min Rain = 0
KCO2 161118Z 16006KT 03/M01 A3018 RMK A01 T00281007  RH  078%=      5-min Rain = 0
KCO2 161119Z 16006KT 03/M01 A3018 RMK A01 T00281007  RH  078%=      5-min Rain = 0
KCO2 161120Z 16006KT 03/M01 A3018 RMK A01 T00271007  RH  078%=      5-min Rain = 0
KCO2 161121Z 16006KT 03/M01 A3018 RMK A01 T00271007  RH  078%=      5-min Rain = 0
KCO2 161122Z 16006KT 03/M01 A3018 RMK A01 T00271007  RH  078%=      5-min Rain = 0
KCO2 161123Z 16006KT 03/M01 A3018 RMK A01 T00271007  RH  079%=      5-min Rain = 0
KCO2 161124Z 15006KT 03/M01 A3018 RMK A01 T00271007  RH  078%=      5-min Rain = 0
KCO2 161125Z 16006KT 03/M01 A3018 RMK A01 T00281006  RH  078%=      5-min Rain = 0
KCO2 161126Z 16005KT 03/M01 A3018 RMK A01 T00281006  RH  078%=      5-min Rain = 0
KCO2 161127Z 16006KT 03/M01 A3018 RMK A01 T00291006  RH  078%=      5-min Rain = 0
KCO2 161128Z 15006KT 03/M01 A3018 RMK A01 T00301006  RH  078%=      5-min Rain = 0
KCO2 161129Z 15006KT 03/M01 A3018 RMK A01 T00301006  RH  077%=      5-min Rain = 0
KCO2 161130Z 15007KT 03/M01 A3018 RMK A01 T00301006  RH  077%=      5-min Rain = 0
KCO2 161131Z 15006KT 03/M01 A3018 RMK A01 T00301006  RH  077%=      5-min Rain = 0
KCO2 161132Z 15006KT 03/M01 A3018 RMK A01 T00311005  RH  077%=      5-min Rain = 0
KCO2 161133Z 15006KT 03/M01 A3018 RMK A01 T00311005  RH  077%=      5-min Rain = 0
KCO2 161134Z 15006KT 03/M01 A3018 RMK A01 T00321005  RH  077%=      5-min Rain = 0
KCO2 161135Z 15006KT 03/M01 A3018 RMK A01 T00321005  RH  077%=      5-min Rain = 0
KCO2 161136Z 15007KT 03/M01 A3018 RMK A01 T00321005  RH  077%=      5-min Rain = 0
KCO2 161137Z 15006KT 03/M00 A3018 RMK A01 T00331004  RH  076%=      5-min Rain = 0
KCO2 161138Z 15006KT 03/M01 A3018 RMK A01 T00341005  RH  076%=      5-min Rain = 0
KCO2 161139Z 15006KT 03/M01 A3018 RMK A01 T00341005  RH  076%=      5-min Rain = 0
KCO2 161140Z 14006KT 03/M01 A3018 RMK A01 T00331005  RH  076%=      5-min Rain = 0
KCO2 161141Z 15006KT 03/M01 A3018 RMK A01 T00331005  RH  076%=      5-min Rain = 0
KCO2 161142Z 14006KT 03/M01 A3018 RMK A01 T00311006  RH  077%=      5-min Rain = 0
KCO2 161143Z 14006KT 03/M01 A3018 RMK A01 T00301006  RH  077%=      5-min Rain = 0
KCO2 161144Z 14006KT 03/M01 A3018 RMK A01 T00291006  RH  078%=      5-min Rain = 0
KCO2 161145Z 14006KT 03/M01 A3018 RMK A01 T00281006  RH  078%=      5-min Rain = 0
KCO2 161146Z 14006KT 03/M01 A3018 RMK A01 T00281006  RH  078%=      5-min Rain = 0
KCO2 161147Z 14006KT 03/M01 A3018 RMK A01 T00281006  RH  079%=      5-min Rain = 0
KCO2 161148Z 14006KT 03/M01 A3018 RMK A01 T00271006  RH  079%=      5-min Rain = 0
KCO2 161149Z 14006KT 03/M01 A3018 RMK A01 T00261006  RH  079%=      5-min Rain = 0
KCO2 161150Z 13005KT 03/M01 A3018 RMK A01 T00261006  RH  080%=      5-min Rain = 0
KCO2 161151Z 13005KT 03/M01 A3018 RMK A01 T00251006  RH  080%=      5-min Rain = 0
KCO2 161152Z 13005KT 03/M01 A3018 RMK A01 T00251006  RH  080%=      5-min Rain = 0
KCO2 161153Z 13006KT 02/M01 A3018 RMK A01 T00241007  RH  080%=      5-min Rain = 0
KCO2 161154Z 13005KT 02/M01 A3018 RMK A01 T00241007  RH  080%=      5-min Rain = 0
KCO2 161155Z 13005KT 02/M01 A3018 RMK A01 T00221008  RH  081%=      5-min Rain = 0
KCO2 161156Z 13005KT 02/M01 A3018 RMK A01 T00221008  RH  081%=      5-min Rain = 0
KCO2 161157Z 13005KT 02/M01 A3018 RMK A01 T00211008  RH  081%=      5-min Rain = 0
KCO2 161158Z 13005KT 02/M01 A3018 RMK A01 T00201008  RH  081%=      5-min Rain = 0
KCO2 161159Z 13005KT 02/M01 A3018 RMK A01 T00201008  RH  082%=      5-min Rain = 0
KCO2 161200Z 13005KT 02/M01 A3018 RMK A01 T00201008  RH  082%=      5-min Rain = 0
KCO2 161201Z 13005KT 02/M01 A3018 RMK A01 T00201008  RH  082%=      5-min Rain = 0
KCO2 161202Z 13005KT 02/M01 A3018 RMK A01 T00191008  RH  082%=      5-min Rain = 0
KCO2 161203Z 13005KT 02/M01 A3018 RMK A01 T00191008  RH  082%=      5-min Rain = 0
KCO2 161204Z 13005KT 02/M01 A3018 RMK A01 T00191008  RH  082%=      5-min Rain = 0
KCO2 161205Z 13005KT 02/M01 A3018 RMK A01 T00201007  RH  082%=      5-min Rain = 0
KCO2 161206Z 13005KT 02/M01 A3018 RMK A01 T00191008  RH  082%=      5-min Rain = 0
KCO2 161207Z 12005KT 02/M01 A3018 RMK A01 T00191008  RH  083%=      5-min Rain = 0
KCO2 161208Z 12005KT 02/M01 A3018 RMK A01 T00191008  RH  083%=      5-min Rain = 0
KCO2 161209Z 13005KT 02/M01 A3018 RMK A01 T00191007  RH  083%=      5-min Rain = 0
KCO2 161210Z 13005KT 02/M01 A3018 RMK A01 T00201007  RH  083%=      5-min Rain = 0
KCO2 161211Z 13005KT 02/M01 A3018 RMK A01 T00201007  RH  082%=      5-min Rain = 0
KCO2 161212Z 13005KT 02/M01 A3018 RMK A01 T00201008  RH  082%=      5-min Rain = 0
KCO2 161213Z 13005KT 02/M01 A3018 RMK A01 T00201007  RH  082%=      5-min Rain = 0
KCO2 161214Z 13005KT 02/M01 A3018 RMK A01 T00201008  RH  082%=      5-min Rain = 0
KCO2 161215Z 14006KT 02/M01 A3018 RMK A01 T00191008  RH  082%=      5-min Rain = 0
KCO2 161216Z 13006KT 02/M01 A3018 RMK A01 T00191008  RH  083%=      5-min Rain = 0
KCO2 161217Z 13006KT 02/M01 A3018 RMK A01 T00191007  RH  083%=      5-min Rain = 0
KCO2 161218Z 13005KT 02/M01 A3018 RMK A01 T00191007  RH  083%=      5-min Rain = 0
KCO2 161219Z 13005KT 02/M01 A3018 RMK A01 T00191007  RH  083%=      5-min Rain = 0
KCO2 161220Z 13006KT 02/M01 A3018 RMK A01 T00191007  RH  083%=      5-min Rain = 0
KCO2 161221Z 13006KT 02/M01 A3018 RMK A01 T00191007  RH  083%=      5-min Rain = 0
KCO2 161222Z 13005KT 02/M01 A3018 RMK A01 T00191007  RH  083%=      5-min Rain = 0
KCO2 161223Z 13006KT 02/M01 A3018 RMK A01 T00191007  RH  083%=      5-min Rain = 0
KCO2 161224Z 13006KT 02/M01 A3018 RMK A01 T00191007  RH  083%=      5-min Rain = 0
KCO2 161225Z 13006KT 02/M01 A3018 RMK A01 T00181007  RH  083%=      5-min Rain = 0
KCO2 161226Z 13006KT 02/M01 A3018 RMK A01 T00181006  RH  084%=      5-min Rain = 0
KCO2 161227Z 13006KT 02/M01 A3018 RMK A01 T00181006  RH  084%=      5-min Rain = 0
KCO2 161228Z 14006KT 02/M01 A3018 RMK A01 T00191006  RH  084%=      5-min Rain = 0
KCO2 161229Z 13005KT 02/M01 A3018 RMK A01 T00191006  RH  084%=      5-min Rain = 0
KCO2 161230Z 13005KT 02/M01 A3018 RMK A01 T00191006  RH  083%=      5-min Rain = 0
KCO2 161231Z 13005KT 02/M01 A3018 RMK A01 T00191006  RH  083%=      5-min Rain = 0
KCO2 161232Z 13006KT 02/M01 A3018 RMK A01 T00191006  RH  084%=      5-min Rain = 0
KCO2 161233Z 13006KT 02/M01 A3018 RMK A01 T00191005  RH  084%=      5-min Rain = 0
KCO2 161234Z 13005KT 02/M01 A3018 RMK A01 T00191005  RH  084%=      5-min Rain = 0
KCO2 161235Z 13006KT 02/M01 A3018 RMK A01 T00191005  RH  084%=      5-min Rain = 0
KCO2 161236Z 14006KT 02/M01 A3018 RMK A01 T00201005  RH  084%=      5-min Rain = 0
KCO2 161237Z 14006KT 02/M00 A3018 RMK A01 T00201004  RH  084%=      5-min Rain = 0
KCO2 161238Z 14006KT 02/M00 A3018 RMK A01 T00211004  RH  084%=      5-min Rain = 0
KCO2 161239Z 14006KT 02/M00 A3018 RMK A01 T00211004  RH  083%=      5-min Rain = 0
KCO2 161240Z 14006KT 02/M01 A3018 RMK A01 T00211005  RH  083%=      5-min Rain = 0
KCO2 161241Z 14006KT 02/M01 A3018 RMK A01 T00211005  RH  083%=      5-min Rain = 0
KCO2 161242Z 14006KT 02/M00 A3018 RMK A01 T00211004  RH  083%=      5-min Rain = 0
KCO2 161243Z 14006KT 02/M00 A3018 RMK A01 T00211004  RH  083%=      5-min Rain = 0
KCO2 161244Z 14005KT 02/M00 A3018 RMK A01 T00211004  RH  083%=      5-min Rain = 0
KCO2 161245Z 14006KT 02/M00 A3018 RMK A01 T00211004  RH  083%=      5-min Rain = 0
KCO2 161246Z 14006KT 02/M00 A3018 RMK A01 T00211004  RH  083%=      5-min Rain = 0
KCO2 161247Z 14006KT 02/M00 A3018 RMK A01 T00211004  RH  083%=      5-min Rain = 0
KCO2 161248Z 14006KT 02/M00 A3018 RMK A01 T00211004  RH  083%=      5-min Rain = 0
KCO2 161249Z 14006KT 02/M00 A3018 RMK A01 T00211004  RH  083%=      5-min Rain = 0
KCO2 161250Z 14006KT 02/M00 A3018 RMK A01 T00211004  RH  083%=      5-min Rain = 0
KCO2 161251Z 14006KT 02/M01 A3018 RMK A01 T00201005  RH  084%=      5-min Rain = 0
KCO2 161252Z 14006KT 02/M01 A3018 RMK A01 T00201005  RH  084%=      5-min Rain = 0
KCO2 161253Z 14006KT 02/M01 A3018 RMK A01 T00191005  RH  084%=      5-min Rain = 0
KCO2 161254Z 14006KT 02/M01 A3018 RMK A01 T00191005  RH  084%=      5-min Rain = 0
KCO2 161255Z 14006KT 02/M01 A3018 RMK A01 T00191005  RH  085%=      5-min Rain = 0
KCO2 161256Z 14006KT 02/M01 A3018 RMK A01 T00181005  RH  085%=      5-min Rain = 0
KCO2 161257Z 14006KT 02/M01 A3018 RMK A01 T00181005  RH  085%=      5-min Rain = 0
KCO2 161258Z 14006KT 02/M01 A3018 RMK A01 T00181005  RH  085%=      5-min Rain = 0
KCO2 161259Z 14006KT 02/M00 A3018 RMK A01 T00181004  RH  085%=      5-min Rain = 0
KCO2 161300Z 14006KT 02/M01 A3018 RMK A01 T00181005  RH  085%=      5-min Rain = 0
KCO2 161301Z 14006KT 02/M01 A3018 RMK A01 T00181005  RH  085%=      5-min Rain = 0
KCO2 161302Z 14006KT 02/M01 A3018 RMK A01 T00171005  RH  085%=      5-min Rain = 0
KCO2 161303Z 14006KT 02/M00 A3018 RMK A01 T00181004  RH  085%=      5-min Rain = 0
KCO2 161304Z 14006KT 02/M01 A3018 RMK A01 T00171005  RH  085%=      5-min Rain = 0
KCO2 161305Z 14006KT 02/M01 A3018 RMK A01 T00171005  RH  085%=      5-min Rain = 0
KCO2 161306Z 14006KT 02/M00 A3018 RMK A01 T00171004  RH  086%=      5-min Rain = 0
KCO2 161307Z 14007KT 02/M01 A3018 RMK A01 T00171005  RH  086%=      5-min Rain = 0
KCO2 161308Z 14006KT 02/M01 A3018 RMK A01 T00161005  RH  086%=      5-min Rain = 0
KCO2 161309Z 14007KT 02/M01 A3018 RMK A01 T00161005  RH  086%=      5-min Rain = 0
KCO2 161310Z 14007KT 02/M01 A3018 RMK A01 T00161005  RH  086%=      5-min Rain = 0
KCO2 161311Z 14006KT 02/M01 A3018 RMK A01 T00161005  RH  086%=      5-min Rain = 0
KCO2 161312Z 14007KT 02/M01 A3018 RMK A01 T00161005  RH  086%=      5-min Rain = 0
KCO2 161313Z 14007KT 02/M01 A3018 RMK A01 T00161005  RH  086%=      5-min Rain = 0
KCO2 161314Z 14007KT 02/M01 A3018 RMK A01 T00151005  RH  086%=      5-min Rain = 0
KCO2 161315Z 14007KT 02/M01 A3018 RMK A01 T00151005  RH  086%=      5-min Rain = 0
KCO2 161316Z 14007KT 02/M01 A3018 RMK A01 T00151005  RH  086%=      5-min Rain = 0
KCO2 161317Z 14007KT 02/M01 A3018 RMK A01 T00151005  RH  087%=      5-min Rain = 0
KCO2 161318Z 14007KT 02/M01 A3018 RMK A01 T00151005  RH  087%=      5-min Rain = 0
KCO2 161319Z 14007KT 01/M01 A3018 RMK A01 T00141005  RH  087%=      5-min Rain = 0
KCO2 161320Z 14007KT 02/M01 A3018 RMK A01 T00151005  RH  087%=      5-min Rain = 0
KCO2 161321Z 14007KT 02/M01 A3018 RMK A01 T00151005  RH  087%=      5-min Rain = 0
KCO2 161322Z 14007KT 01/M01 A3018 RMK A01 T00141006  RH  087%=      5-min Rain = 0
KCO2 161323Z 14007KT 02/M01 A3018 RMK A01 T00151005  RH  087%=      5-min Rain = 0
KCO2 161324Z 14007KT 02/M01 A3018 RMK A01 T00151005  RH  087%=      5-min Rain = 0
KCO2 161325Z 14007KT 02/M01 A3018 RMK A01 T00151005  RH  087%=      5-min Rain = 0
KCO2 161326Z 14008KT 02/M00 A3018 RMK A01 T00161004  RH  087%=      5-min Rain = 0
KCO2 161327Z 14007KT 02/M00 A3018 RMK A01 T00161004  RH  087%=      5-min Rain = 0
KCO2 161328Z 15008KT 02/M00 A3018 RMK A01 T00171003  RH  087%=      5-min Rain = 0
KCO2 161329Z 14008KT 02/M00 A3018 RMK A01 T00171003  RH  086%=      5-min Rain = 0
KCO2 161330Z 14008KT 02/M00 A3018 RMK A01 T00181003  RH  086%=      5-min Rain = 0
KCO2 161331Z 14008KT 02/M00 A3018 RMK A01 T00181003  RH  086%=      5-min Rain = 0
KCO2 161332Z 14008KT 02/M00 A3018 RMK A01 T00191002  RH  086%=      5-min Rain = 0
KCO2 161333Z 14008KT 02/M00 A3018 RMK A01 T00201002  RH  085%=      5-min Rain = 0
KCO2 161334Z 14008KT 02/M00 A3018 RMK A01 T00201002  RH  085%=      5-min Rain = 0
KCO2 161335Z 14008KT 02/M00 A3018 RMK A01 T00211002  RH  085%=      5-min Rain = 0
KCO2 161336Z 14008KT 02/M00 A3018 RMK A01 T00221001  RH  085%=      5-min Rain = 0
KCO2 161337Z 14008KT 02/M00 A3018 RMK A01 T00231001  RH  084%=      5-min Rain = 0
KCO2 161338Z 14007KT 02/M00 A3018 RMK A01 T00241001  RH  084%=      5-min Rain = 0
KCO2 161339Z 14007KT 03/00 A3018 RMK A01 T002500-0  RH  084%=      5-min Rain = 0
KCO2 161340Z 14008KT 03/00 A3018 RMK A01 T00260000  RH  083%=      5-min Rain = 0
KCO2 161341Z 14007KT 03/00 A3018 RMK A01 T00270000  RH  083%=      5-min Rain = 0
KCO2 161342Z 14007KT 03/00 A3018 RMK A01 T00280001  RH  082%=      5-min Rain = 0
KCO2 161343Z 14007KT 03/00 A3018 RMK A01 T00290001  RH  082%=      5-min Rain = 0
KCO2 161344Z 15007KT 03/00 A3018 RMK A01 T00290001  RH  082%=      5-min Rain = 0
KCO2 161345Z 14007KT 03/00 A3018 RMK A01 T00310002  RH  081%=      5-min Rain = 0
KCO2 161346Z 15006KT 03/00 A3018 RMK A01 T00320002  RH  081%=      5-min Rain = 0
KCO2 161347Z 15006KT 03/00 A3018 RMK A01 T00330003  RH  081%=      5-min Rain = 0
KCO2 161348Z 14006KT 03/00 A3018 RMK A01 T00340003  RH  080%=      5-min Rain = 0
KCO2 161349Z 15006KT 03/00 A3018 RMK A01 T00340003  RH  080%=      5-min Rain = 0
KCO2 161350Z 15006KT 04/00 A3018 RMK A01 T00350003  RH  080%=      5-min Rain = 0
KCO2 161351Z 14006KT 04/00 A3018 RMK A01 T00360003  RH  079%=      5-min Rain = 0
KCO2 161352Z 15006KT 04/00 A3018 RMK A01 T00360003  RH  079%=      5-min Rain = 0
KCO2 161353Z 15006KT 04/00 A3018 RMK A01 T00360004  RH  079%=      5-min Rain = 0
KCO2 161354Z 15006KT 04/00 A3018 RMK A01 T00370004  RH  079%=      5-min Rain = 0
KCO2 161355Z 15006KT 04/00 A3018 RMK A01 T00380004  RH  079%=      5-min Rain = 0
KCO2 161356Z 15006KT 04/01 A3018 RMK A01 T00380005  RH  079%=      5-min Rain = 0
KCO2 161357Z 15006KT 04/01 A3018 RMK A01 T00400005  RH  078%=      5-min Rain = 0
KCO2 161358Z 15006KT 04/01 A3018 RMK A01 T00410006  RH  078%=      5-min Rain = 0
KCO2 161359Z 15007KT 04/01 A3018 RMK A01 T00430006  RH  077%=      5-min Rain = 0
KCO2 161400Z 15006KT 04/01 A3018 RMK A01 T00440007  RH  077%=      5-min Rain = 0
KCO2 161401Z 16006KT 05/01 A3018 RMK A01 T00450007  RH  076%=      5-min Rain = 0
KCO2 161402Z 16006KT 05/01 A3018 RMK A01 T00460007  RH  076%=      5-min Rain = 0
KCO2 161403Z 16006KT 05/01 A3018 RMK A01 T00470007  RH  075%=      5-min Rain = 0
KCO2 161404Z 15007KT 05/01 A3018 RMK A01 T00480008  RH  075%=      5-min Rain = 0
KCO2 161405Z 16006KT 05/01 A3018 RMK A01 T00490008  RH  075%=      5-min Rain = 0
KCO2 161406Z 15006KT 05/01 A3018 RMK A01 T00500008  RH  074%=      5-min Rain = 0
KCO2 161407Z 15007KT 05/01 A3018 RMK A01 T00510009  RH  074%=      5-min Rain = 0
KCO2 161408Z 15007KT 05/01 A3018 RMK A01 T00520009  RH  074%=      5-min Rain = 0
KCO2 161409Z 15007KT 05/01 A3018 RMK A01 T00520008  RH  073%=      5-min Rain = 0
KCO2 161410Z 15006KT 05/01 A3018 RMK A01 T00530009  RH  073%=      5-min Rain = 0
KCO2 161411Z 15006KT 05/01 A3018 RMK A01 T00530008  RH  073%=      5-min Rain = 0
KCO2 161412Z 15006KT 05/01 A3018 RMK A01 T00540009  RH  073%=      5-min Rain = 0
KCO2 161413Z 15005KT 06/01 A3018 RMK A01 T00550010  RH  073%=      5-min Rain = 0
KCO2 161414Z 15005KT 06/01 A3018 RMK A01 T00550010  RH  073%=      5-min Rain = 0
KCO2 161415Z 15006KT 06/01 A3018 RMK A01 T00560010  RH  072%=      5-min Rain = 0
KCO2 161416Z 15005KT 06/01 A3018 RMK A01 T00570009  RH  072%=      5-min Rain = 0
KCO2 161417Z 15005KT 06/01 A3018 RMK A01 T00570010  RH  072%=      5-min Rain = 0
KCO2 161418Z 15005KT 06/01 A3018 RMK A01 T00580010  RH  072%=      5-min Rain = 0
KCO2 161419Z 15005KT 06/01 A3018 RMK A01 T00580010  RH  071%=      5-min Rain = 0
KCO2 161420Z 15005KT 06/01 A3019 RMK A01 T00590011  RH  071%=      5-min Rain = 0
KCO2 161421Z 15005KT 06/01 A3019 RMK A01 T00600012  RH  071%=      5-min Rain = 0
KCO2 161422Z 15005KT 06/01 A3019 RMK A01 T00610011  RH  070%=      5-min Rain = 0
KCO2 161423Z 15005KT 06/01 A3019 RMK A01 T00610011  RH  070%=      5-min Rain = 0
KCO2 161424Z 15005KT 06/01 A3019 RMK A01 T00620012  RH  070%=      5-min Rain = 0
KCO2 161425Z 15005KT 06/01 A3019 RMK A01 T00630011  RH  070%=      5-min Rain = 0
KCO2 161426Z 15005KT 06/01 A3019 RMK A01 T00640013  RH  070%=      5-min Rain = 0
KCO2 161427Z 15005KT 07/01 A3019 RMK A01 T00660014  RH  069%=      5-min Rain = 0
KCO2 161428Z 16005KT 07/01 A3019 RMK A01 T00670013  RH  068%=      5-min Rain = 0
KCO2 161429Z 16006KT 07/01 A3019 RMK A01 T00670012  RH  068%=      5-min Rain = 0
KCO2 161430Z 16005KT 07/01 A3019 RMK A01 T00670012  RH  068%=      5-min Rain = 0
KCO2 161431Z 16004KT 07/01 A3019 RMK A01 T00670012  RH  068%=      5-min Rain = 0
KCO2 161432Z 16005KT 07/01 A3019 RMK A01 T00680012  RH  068%=      5-min Rain = 0
KCO2 161433Z 16005KT 07/01 A3019 RMK A01 T00690013  RH  068%=      5-min Rain = 0
KCO2 161434Z 16005KT 07/01 A3019 RMK A01 T00700012  RH  067%=      5-min Rain = 0
KCO2 161435Z 17006KT 07/01 A3019 RMK A01 T00710013  RH  066%=      5-min Rain = 0
KCO2 161436Z 16006KT 07/01 A3019 RMK A01 T00710011  RH  065%=      5-min Rain = 0
KCO2 161437Z 16006KT 07/01 A3019 RMK A01 T00720011  RH  065%=      5-min Rain = 0
KCO2 161438Z 17006KT 07/01 A3019 RMK A01 T00720012  RH  065%=      5-min Rain = 0
KCO2 161439Z 17007KT 07/01 A3019 RMK A01 T00730010  RH  065%=      5-min Rain = 0
KCO2 161440Z 18006KT 07/01 A3019 RMK A01 T00740011  RH  065%=      5-min Rain = 0
KCO2 161441Z 17006KT 07/01 A3019 RMK A01 T00740011  RH  064%=      5-min Rain = 0
KCO2 161442Z 18006KT 08/01 A3019 RMK A01 T00750011  RH  064%=      5-min Rain = 0
KCO2 161443Z 16005KT 08/01 A3019 RMK A01 T00760013  RH  064%=      5-min Rain = 0
KCO2 161444Z 17007KT 08/01 A3019 RMK A01 T00780011  RH  063%=      5-min Rain = 0
KCO2 161445Z 17005KT 08/01 A3019 RMK A01 T00780012  RH  063%=      5-min Rain = 0
KCO2 161446Z 16006KT 08/01 A3019 RMK A01 T00800014  RH  063%=      5-min Rain = 0
KCO2 161447Z 17006KT 08/01 A3018 RMK A01 T00810014  RH  062%=      5-min Rain = 0
KCO2 161448Z 18007KT 08/01 A3018 RMK A01 T00820013  RH  062%=      5-min Rain = 0
KCO2 161449Z 17006KT 08/01 A3018 RMK A01 T00820013  RH  062%=      5-min Rain = 0
KCO2 161450Z 18009KT 08/01 A3018 RMK A01 T00820012  RH  061%=      5-min Rain = 0
KCO2 161451Z 18009KT 08/01 A3018 RMK A01 T00820011  RH  061%=      5-min Rain = 0
KCO2 161452Z 18010KT 08/01 A3018 RMK A01 T00830010  RH  060%=      5-min Rain = 0
KCO2 161453Z 18010KT 08/01 A3018 RMK A01 T00840012  RH  060%=      5-min Rain = 0
KCO2 161454Z 19011KT 09/01 A3018 RMK A01 T00850010  RH  059%=      5-min Rain = 0
KCO2 161455Z 18011KT 09/01 A3018 RMK A01 T00850010  RH  059%=      5-min Rain = 0
KCO2 161456Z 18011KT 09/01 A3018 RMK A01 T00850010  RH  059%=      5-min Rain = 0
KCO2 161457Z 18009KT 09/01 A3018 RMK A01 T00850010  RH  060%=      5-min Rain = 0
KCO2 161458Z 19009KT 09/01 A3018 RMK A01 T00850011  RH  059%=      5-min Rain = 0
KCO2 161459Z 18008KT 09/01 A3018 RMK A01 T00860011  RH  059%=      5-min Rain = 0
KCO2 161500Z 18008KT 09/01 A3018 RMK A01 T00860011  RH  059%=      5-min Rain = 0
KCO2 161501Z 18009KT 09/01 A3018 RMK A01 T00870012  RH  059%=      5-min Rain = 0
KCO2 161502Z 18010KT 09/01 A3018 RMK A01 T00880011  RH  058%=      5-min Rain = 0
KCO2 161503Z 17009KT 09/01 A3018 RMK A01 T00880010  RH  058%=      5-min Rain = 0
KCO2 161504Z 18010KT 09/01 A3018 RMK A01 T00880012  RH  059%=      5-min Rain = 0
KCO2 161505Z 17010KT 09/01 A3018 RMK A01 T00890011  RH  058%=      5-min Rain = 0
KCO2 161506Z 18009KT 09/01 A3018 RMK A01 T00890011  RH  058%=      5-min Rain = 0
KCO2 161507Z 17010KT 09/01 A3018 RMK A01 T00890011  RH  058%=      5-min Rain = 0
KCO2 161508Z 17011KT 09/01 A3018 RMK A01 T00900011  RH  058%=      5-min Rain = 0
KCO2 161509Z 18010KT 09/01 A3018 RMK A01 T00910011  RH  058%=      5-min Rain = 0
KCO2 161510Z 17009KT 09/01 A3018 RMK A01 T00910011  RH  058%=      5-min Rain = 0
KCO2 161511Z 19010KT 09/01 A3018 RMK A01 T00910011  RH  057%=      5-min Rain = 0
KCO2 161512Z 19010KT 09/01 A3018 RMK A01 T00910010  RH  057%=      5-min Rain = 0
KCO2 161513Z 19012KT 09/01 A3018 RMK A01 T00900011  RH  058%=      5-min Rain = 0
KCO2 161514Z 19009KT 09/01 A3018 RMK A01 T00900011  RH  058%=      5-min Rain = 0
KCO2 161515Z 19011KT 09/01 A3018 RMK A01 T00900011  RH  058%=      5-min Rain = 0
KCO2 161516Z 19009KT 09/01 A3018 RMK A01 T00900011  RH  058%=      5-min Rain = 0
KCO2 161517Z 20011KT 09/01 A3018 RMK A01 T00910011  RH  057%=      5-min Rain = 0
KCO2 161518Z 18011KT 09/01 A3018 RMK A01 T00910012  RH  057%=      5-min Rain = 0
KCO2 161519Z 19011KT 09/01 A3018 RMK A01 T00920011  RH  057%=      5-min Rain = 0
KCO2 161520Z 19010KT 09/01 A3018 RMK A01 T00920011  RH  057%=      5-min Rain = 0
KCO2 161521Z 18011KT 09/01 A3018 RMK A01 T00910011  RH  057%=      5-min Rain = 0
KCO2 161522Z 19011KT 09/01 A3018 RMK A01 T00920011  RH  057%=      5-min Rain = 0
KCO2 161523Z 19013KT 09/01 A3018 RMK A01 T00920011  RH  057%=      5-min Rain = 0
KCO2 161524Z 18011KT 09/01 A3018 RMK A01 T00920011  RH  057%=      5-min Rain = 0
KCO2 161525Z 19011KT 09/01 A3018 RMK A01 T00930012  RH  057%=      5-min Rain = 0
KCO2 161526Z 19012G17KT 09/01 A3018 RMK A01 T00930012  RH  057%=      5-min Rain = 0
KCO2 161527Z 18012KT 09/01 A3018 RMK A01 T00930011  RH  057%=      5-min Rain = 0
KCO2 161528Z 18011KT 09/01 A3018 RMK A01 T00920011  RH  057%=      5-min Rain = 0
KCO2 161529Z 19009KT 09/01 A3018 RMK A01 T00930012  RH  057%=      5-min Rain = 0
KCO2 161530Z 19010KT 10/01 A3018 RMK A01 T00950013  RH  057%=      5-min Rain = 0
KCO2 161531Z 19011KT 10/01 A3018 RMK A01 T00960013  RH  056%=      5-min Rain = 0
KCO2 161532Z 19009KT 10/01 A3018 RMK A01 T00970014  RH  056%=      5-min Rain = 0
KCO2 161533Z 19012KT 10/01 A3018 RMK A01 T00990014  RH  056%=      5-min Rain = 0
KCO2 161534Z 19012KT 10/01 A3018 RMK A01 T00990013  RH  055%=      5-min Rain = 0
KCO2 161535Z 19012KT 10/01 A3018 RMK A01 T00980012  RH  055%=      5-min Rain = 0
KCO2 161536Z 18010KT 10/01 A3018 RMK A01 T00970013  RH  056%=      5-min Rain = 0
KCO2 161537Z 19008KT 10/01 A3018 RMK A01 T00980014  RH  056%=      5-min Rain = 0
KCO2 161538Z 19009KT 10/01 A3017 RMK A01 T00990014  RH  055%=      5-min Rain = 0
KCO2 161539Z 19011KT 10/01 A3017 RMK A01 T01000014  RH  055%=      5-min Rain = 0
KCO2 161540Z 18011KT 10/01 A3017 RMK A01 T00990013  RH  055%=      5-min Rain = 0
KCO2 161541Z 18010KT 10/02 A3017 RMK A01 T01000015  RH  055%=      5-min Rain = 0
KCO2 161542Z 18012KT 10/01 A3017 RMK A01 T01010014  RH  055%=      5-min Rain = 0
KCO2 161543Z 18012KT 10/01 A3017 RMK A01 T01020014  RH  055%=      5-min Rain = 0
KCO2 161544Z 18011KT 10/01 A3017 RMK A01 T01010014  RH  054%=      5-min Rain = 0
KCO2 161545Z 19011KT 10/01 A3017 RMK A01 T01010014  RH  055%=      5-min Rain = 0
KCO2 161546Z 19012KT 10/01 A3017 RMK A01 T01010014  RH  055%=      5-min Rain = 0
KCO2 161547Z 19013KT 10/01 A3017 RMK A01 T01010014  RH  055%=      5-min Rain = 0
KCO2 161548Z 18011KT 10/01 A3017 RMK A01 T01010014  RH  055%=      5-min Rain = 0
KCO2 161549Z 18011KT 10/02 A3017 RMK A01 T01020015  RH  055%=      5-min Rain = 0
KCO2 161550Z 19010KT 10/02 A3017 RMK A01 T01030015  RH  054%=      5-min Rain = 0
KCO2 161551Z 19008KT 10/02 A3017 RMK A01 T01030015  RH  054%=      5-min Rain = 0
KCO2 161552Z 18011KT 10/02 A3017 RMK A01 T01040015  RH  054%=      5-min Rain = 0
KCO2 161553Z 18011KT 10/02 A3017 RMK A01 T01040016  RH  054%=      5-min Rain = 0
KCO2 161554Z 18010KT 11/02 A3017 RMK A01 T01050016  RH  054%=      5-min Rain = 0
KCO2 161555Z 19011KT 11/02 A3017 RMK A01 T01060016  RH  054%=      5-min Rain = 0
KCO2 161556Z 19009KT 11/02 A3017 RMK A01 T01070016  RH  053%=      5-min Rain = 0
KCO2 161557Z 19010KT 11/02 A3017 RMK A01 T01070016  RH  053%=      5-min Rain = 0
KCO2 161558Z 18012KT 11/02 A3017 RMK A01 T01070016  RH  053%=      5-min Rain = 0
KCO2 161559Z 19010KT 11/02 A3017 RMK A01 T01080017  RH  053%=      5-min Rain = 0
KCO2 161600Z 19011KT 11/02 A3017 RMK A01 T01090016  RH  053%=      5-min Rain = 0
KCO2 161601Z 19011KT 11/02 A3017 RMK A01 T01090017  RH  053%=      5-min Rain = 0
KCO2 161602Z 19012KT 11/02 A3017 RMK A01 T01090016  RH  053%=      5-min Rain = 0
KCO2 161603Z 19011KT 11/02 A3017 RMK A01 T01080016  RH  053%=      5-min Rain = 0
KCO2 161604Z 19011KT 11/02 A3017 RMK A01 T01080017  RH  053%=      5-min Rain = 0
KCO2 161605Z 19011KT 11/02 A3017 RMK A01 T01080016  RH  053%=      5-min Rain = 0
KCO2 161606Z 19009KT 11/02 A3017 RMK A01 T01060016  RH  053%=      5-min Rain = 0
KCO2 161607Z 20008KT 11/02 A3017 RMK A01 T01060017  RH  054%=      5-min Rain = 0
KCO2 161608Z 19007KT 11/02 A3017 RMK A01 T01080018  RH  054%=      5-min Rain = 0
KCO2 161609Z 18010KT 11/02 A3017 RMK A01 T01090018  RH  053%=      5-min Rain = 0
KCO2 161610Z 18010KT 11/02 A3017 RMK A01 T01090017  RH  053%=      5-min Rain = 0
KCO2 161611Z 19009KT 11/02 A3017 RMK A01 T01080017  RH  053%=      5-min Rain = 0
KCO2 161612Z 19007KT 11/02 A3017 RMK A01 T01090018  RH  054%=      5-min Rain = 0
KCO2 161613Z 18010KT 11/02 A3016 RMK A01 T01110019  RH  053%=      5-min Rain = 0
KCO2 161614Z 18009KT 11/02 A3016 RMK A01 T01120018  RH  052%=      5-min Rain = 0
KCO2 161615Z 19009KT 11/02 A3016 RMK A01 T01110018  RH  053%=      5-min Rain = 0
KCO2 161616Z 20008KT 11/02 A3016 RMK A01 T01120018  RH  053%=      5-min Rain = 0
KCO2 161617Z 20009KT 11/02 A3016 RMK A01 T01110018  RH  053%=      5-min Rain = 0
KCO2 161618Z 18010KT 11/02 A3016 RMK A01 T01120019  RH  053%=      5-min Rain = 0
KCO2 161619Z 18010KT 11/02 A3017 RMK A01 T01130019  RH  052%=      5-min Rain = 0
KCO2 161620Z 18010KT 11/02 A3017 RMK A01 T01140019  RH  052%=      5-min Rain = 0
KCO2 161621Z 18010KT 11/02 A3017 RMK A01 T01130020  RH  053%=      5-min Rain = 0
KCO2 161622Z 18011KT 12/02 A3016 RMK A01 T01160020  RH  052%=      5-min Rain = 0
KCO2 161623Z 18011KT 12/02 A3016 RMK A01 T01160020  RH  052%=      5-min Rain = 0
KCO2 161624Z 17011KT 12/02 A3016 RMK A01 T01170021  RH  052%=      5-min Rain = 0
KCO2 161625Z 18010KT 12/02 A3016 RMK A01 T01180021  RH  051%=      5-min Rain = 0
KCO2 161626Z 19010KT 12/02 A3016 RMK A01 T01190022  RH  051%=      5-min Rain = 0
KCO2 161627Z 19009KT 12/02 A3016 RMK A01 T01200021  RH  051%=      5-min Rain = 0
KCO2 161628Z 19010KT 12/02 A3016 RMK A01 T01200021  RH  051%=      5-min Rain = 0
KCO2 161629Z 20010KT 12/02 A3016 RMK A01 T01200021  RH  051%=      5-min Rain = 0
KCO2 161630Z 19007KT 12/02 A3016 RMK A01 T01190022  RH  051%=      5-min Rain = 0
KCO2 161631Z 20009KT 12/02 A3016 RMK A01 T01200022  RH  051%=      5-min Rain = 0
KCO2 161632Z 19009KT 12/02 A3016 RMK A01 T01220023  RH  051%=      5-min Rain = 0
KCO2 161633Z 19009KT 12/02 A3016 RMK A01 T01240024  RH  050%=      5-min Rain = 0
KCO2 161634Z 18007KT 13/02 A3016 RMK A01 T01250024  RH  050%=      5-min Rain = 0
KCO2 161635Z 19010KT 13/02 A3016 RMK A01 T01270023  RH  049%=      5-min Rain = 0
KCO2 161636Z 18010KT 13/02 A3016 RMK A01 T01270024  RH  049%=      5-min Rain = 0
KCO2 161637Z 18009KT 13/02 A3016 RMK A01 T01280023  RH  049%=      5-min Rain = 0
KCO2 161638Z 18010KT 13/02 A3016 RMK A01 T01280024  RH  049%=      5-min Rain = 0
KCO2 161639Z 18010KT 13/02 A3016 RMK A01 T01290024  RH  049%=      5-min Rain = 0
KCO2 161640Z 19010KT 13/02 A3016 RMK A01 T01290024  RH  049%=      5-min Rain = 0
KCO2 161641Z 18010KT 13/02 A3016 RMK A01 T01290024  RH  049%=      5-min Rain = 0
KCO2 161642Z 18011KT 13/02 A3015 RMK A01 T01290024  RH  049%=      5-min Rain = 0
KCO2 161643Z 18011KT 13/02 A3015 RMK A01 T01290024  RH  049%=      5-min Rain = 0
KCO2 161644Z 19011KT 13/02 A3015 RMK A01 T01290024  RH  049%=      5-min Rain = 0
KCO2 161645Z 18010KT 13/03 A3015 RMK A01 T01290025  RH  049%=      5-min Rain = 0
KCO2 161646Z 18010KT 13/03 A3015 RMK A01 T01310026  RH  049%=      5-min Rain = 0
KCO2 161647Z 19008KT 13/03 A3015 RMK A01 T01340027  RH  048%=      5-min Rain = 0
KCO2 161648Z 19008KT 14/03 A3015 RMK A01 T01360027  RH  048%=      5-min Rain = 0
KCO2 161649Z 17008KT 14/03 A3015 RMK A01 T01380028  RH  048%=      5-min Rain = 0
KCO2 161650Z 17010KT 14/03 A3015 RMK A01 T01390027  RH  047%=      5-min Rain = 0
KCO2 161651Z 19011KT 14/03 A3015 RMK A01 T01390028  RH  047%=      5-min Rain = 0
KCO2 161652Z 18012KT 14/03 A3015 RMK A01 T01400028  RH  047%=      5-min Rain = 0
KCO2 161653Z 19011KT 14/03 A3015 RMK A01 T01410028  RH  046%=      5-min Rain = 0
KCO2 161654Z 19011KT 14/03 A3015 RMK A01 T01420028  RH  046%=      5-min Rain = 0
KCO2 161655Z 18012KT 14/03 A3015 RMK A01 T01440029  RH  046%=      5-min Rain = 0
KCO2 161656Z 17013KT 15/03 A3015 RMK A01 T01450028  RH  045%=      5-min Rain = 0
KCO2 161657Z 18013KT 15/03 A3015 RMK A01 T01450028  RH  045%=      5-min Rain = 0
KCO2 161658Z 18011KT 15/03 A3014 RMK A01 T01470029  RH  045%=      5-min Rain = 0
KCO2 161659Z 18010KT 15/03 A3014 RMK A01 T01480029  RH  045%=      5-min Rain = 0
KCO2 161700Z 17012KT 15/03 A3014 RMK A01 T01490029  RH  044%=      5-min Rain = 0
KCO2 161701Z 18013KT 15/03 A3014 RMK A01 T01490028  RH  044%=      5-min Rain = 0
KCO2 161702Z 18012KT 15/03 A3014 RMK A01 T01480028  RH  045%=      5-min Rain = 0
KCO2 161703Z 18011KT 15/03 A3014 RMK A01 T01480029  RH  045%=      5-min Rain = 0
KCO2 161704Z 18012KT 15/03 A3014 RMK A01 T01480030  RH  045%=      5-min Rain = 0
KCO2 161705Z 18009KT 15/03 A3014 RMK A01 T01510032  RH  045%=      5-min Rain = 0
KCO2 161706Z 18013KT 15/03 A3014 RMK A01 T01540032  RH  044%=      5-min Rain = 0
KCO2 161707Z 18012KT 15/03 A3014 RMK A01 T01530029  RH  043%=      5-min Rain = 0
KCO2 161708Z 17011KT 15/03 A3014 RMK A01 T01510030  RH  044%=      5-min Rain = 0
KCO2 161709Z 18011KT 15/03 A3014 RMK A01 T01510030  RH  044%=      5-min Rain = 0
KCO2 161710Z 19009KT 15/03 A3014 RMK A01 T01530032  RH  044%=      5-min Rain = 0
KCO2 161711Z 19010KT 16/03 A3014 RMK A01 T01550032  RH  044%=      5-min Rain = 0
KCO2 161712Z 18011KT 15/03 A3014 RMK A01 T01540030  RH  043%=      5-min Rain = 0
KCO2 161713Z 18010KT 15/03 A3014 RMK A01 T01530030  RH  044%=      5-min Rain = 0
KCO2 161714Z 17009KT 15/03 A3014 RMK A01 T01520030  RH  044%=      5-min Rain = 0
KCO2 161715Z 17010KT 15/03 A3014 RMK A01 T01520031  RH  044%=      5-min Rain = 0
KCO2 161716Z 18009KT 15/03 A3014 RMK A01 T01530031  RH  044%=      5-min Rain = 0
KCO2 161717Z 19010KT 15/03 A3014 RMK A01 T01540032  RH  044%=      5-min Rain = 0
KCO2 161718Z 18011KT 16/03 A3014 RMK A01 T01550031  RH  043%=      5-min Rain = 0
KCO2 161719Z 17011KT 15/03 A3014 RMK A01 T01540031  RH  043%=      5-min Rain = 0
KCO2 161720Z 17012KT 16/03 A3013 RMK A01 T01550031  RH  043%=      5-min Rain = 0
KCO2 161721Z 18012KT 15/03 A3014 RMK A01 T01540031  RH  043%=      5-min Rain = 0
KCO2 161722Z 19008KT 15/03 A3014 RMK A01 T01540031  RH  044%=      5-min Rain = 0
KCO2 161723Z 19012KT 16/03 A3014 RMK A01 T01550032  RH  044%=      5-min Rain = 0
KCO2 161724Z 19011KT 16/03 A3013 RMK A01 T01550031  RH  043%=      5-min Rain = 0
KCO2 161725Z 18011KT 16/03 A3013 RMK A01 T01560033  RH  044%=      5-min Rain = 0
KCO2 161726Z 19012KT 16/03 A3013 RMK A01 T01570033  RH  043%=      5-min Rain = 0
KCO2 161727Z 19010KT 16/03 A3013 RMK A01 T01570032  RH  043%=      5-min Rain = 0
KCO2 161728Z 19010KT 16/03 A3013 RMK A01 T01570032  RH  043%=      5-min Rain = 0
KCO2 161729Z 19010KT 16/03 A3013 RMK A01 T01560033  RH  043%=      5-min Rain = 0
KCO2 161730Z 18010KT 16/03 A3013 RMK A01 T01560033  RH  044%=      5-min Rain = 0
KCO2 161731Z 17012KT 16/03 A3013 RMK A01 T01580034  RH  043%=      5-min Rain = 0
KCO2 161732Z 19013KT 16/03 A3013 RMK A01 T01590034  RH  043%=      5-min Rain = 0
KCO2 161733Z 19010KT 16/03 A3013 RMK A01 T01590033  RH  043%=      5-min Rain = 0
KCO2 161734Z 18012KT 16/03 A3013 RMK A01 T01590034  RH  043%=      5-min Rain = 0
KCO2 161735Z 18014KT 16/03 A3013 RMK A01 T01600034  RH  043%=      5-min Rain = 0
KCO2 161736Z 18014KT 16/03 A3013 RMK A01 T01590034  RH  043%=      5-min Rain = 0
KCO2 161737Z 19013KT 16/04 A3013 RMK A01 T01590035  RH  043%=      5-min Rain = 0
KCO2 161738Z 19012KT 16/04 A3013 RMK A01 T01610036  RH  043%=      5-min Rain = 0
KCO2 161739Z 21013KT 16/04 A3013 RMK A01 T01610036  RH  043%=      5-min Rain = 0
KCO2 161740Z 21013KT 16/04 A3012 RMK A01 T01610036  RH  043%=      5-min Rain = 0
KCO2 161741Z 20010KT 16/04 A3012 RMK A01 T01620036  RH  043%=      5-min Rain = 0
KCO2 161742Z 20012KT 16/04 A3012 RMK A01 T01630037  RH  043%=      5-min Rain = 0
KCO2 161743Z 19011KT 17/04 A3012 RMK A01 T01650036  RH  042%=      5-min Rain = 0
KCO2 161744Z 19011KT 17/04 A3012 RMK A01 T01650036  RH  042%=      5-min Rain = 0
KCO2 161745Z 18012KT 16/04 A3012 RMK A01 T01640036  RH  042%=      5-min Rain = 0
KCO2 161746Z 18011KT 16/04 A3012 RMK A01 T01640035  RH  042%=      5-min Rain = 0
KCO2 161747Z 19013KT 16/04 A3012 RMK A01 T01640035  RH  042%=      5-min Rain = 0
KCO2 161748Z 17012KT 16/04 A3012 RMK A01 T01640036  RH  042%=      5-min Rain = 0
KCO2 161749Z 19011KT 16/04 A3012 RMK A01 T01640036  RH  042%=      5-min Rain = 0
KCO2 161750Z 19010KT 17/04 A3012 RMK A01 T01650036  RH  042%=      5-min Rain = 0
KCO2 161751Z 19011KT 17/04 A3012 RMK A01 T01670038  RH  042%=      5-min Rain = 0
KCO2 161752Z 19013KT 17/04 A3012 RMK A01 T01690036  RH  041%=      5-min Rain = 0
KCO2 161753Z 18011KT 17/04 A3012 RMK A01 T01670035  RH  042%=      5-min Rain = 0
KCO2 161754Z 17011KT 17/04 A3012 RMK A01 T01660036  RH  042%=      5-min Rain = 0
KCO2 161755Z 18012KT 17/04 A3012 RMK A01 T01660036  RH  042%=      5-min Rain = 0
KCO2 161756Z 19010KT 17/04 A3012 RMK A01 T01670036  RH  042%=      5-min Rain = 0
KCO2 161757Z 18011KT 17/04 A3012 RMK A01 T01670037  RH  042%=      5-min Rain = 0
KCO2 161758Z 18014KT 17/04 A3011 RMK A01 T01670036  RH  042%=      5-min Rain = 0
KCO2 161759Z 19012KT 17/04 A3011 RMK A01 T01660036  RH  042%=      5-min Rain = 0
KCO2 161800Z 20010KT 17/04 A3011 RMK A01 T01650036  RH  042%=      5-min Rain = 0
KCO2 161801Z 17009G14KT 17/04 A3011 RMK A01 T01650036  RH  042%=      5-min Rain = 0
KCO2 161802Z 17012KT 17/04 A3011 RMK A01 T01670037  RH  042%=      5-min Rain = 0
KCO2 161803Z 18010KT 17/04 A3011 RMK A01 T01670037  RH  042%=      5-min Rain = 0
KCO2 161804Z 19011KT 17/04 A3011 RMK A01 T01690038  RH  042%=      5-min Rain = 0
KCO2 161805Z 19012KT 17/04 A3011 RMK A01 T01710038  RH  041%=      5-min Rain = 0
KCO2 161806Z 18010KT 17/04 A3011 RMK A01 T01710038  RH  041%=      5-min Rain = 0
KCO2 161807Z 18014KT 17/04 A301 RMK A01 T01700038  RH  041%=      5-min Rain = 0
KCO2 161808Z 19013KT 17/04 A3011 RMK A01 T01710038  RH  041%=      5-min Rain = 0
KCO2 161809Z 20010KT 17/04 A3011 RMK A01 T01700037  RH  041%=      5-min Rain = 0
KCO2 161810Z 19009KT 17/04 A301 RMK A01 T01690037  RH  041%=      5-min Rain = 0
KCO2 161811Z 18011KT 17/04 A301 RMK A01 T01700039  RH  042%=      5-min Rain = 0
KCO2 161812Z 17012KT 17/04 A301 RMK A01 T01720039  RH  041%=      5-min Rain = 0
KCO2 161813Z 17011KT 17/04 A301 RMK A01 T01730039  RH  041%=      5-min Rain = 0
KCO2 161814Z 19007KT 17/04 A301 RMK A01 T01740040  RH  041%=      5-min Rain = 0
KCO2 161815Z 21010KT 18/04 A301 RMK A01 T01770042  RH  041%=      5-min Rain = 0
KCO2 161816Z 20010KT 18/04 A301 RMK A01 T01780041  RH  040%=      5-min Rain = 0
KCO2 161817Z 21008KT 18/04 A301 RMK A01 T01790041  RH  040%=      5-min Rain = 0
KCO2 161818Z 20010KT 18/04 A301 RMK A01 T01790042  RH  040%=      5-min Rain = 0
KCO2 161819Z 20010G17KT 18/04 A301 RMK A01 T01830044  RH  040%=      5-min Rain = 0
KCO2 161820Z 20015KT 19/04 A301 RMK A01 T01850043  RH  039%=      5-min Rain = 0
KCO2 161821Z 20012KT 18/04 A3009 RMK A01 T01810040  RH  039%=      5-min Rain = 0
KCO2 161822Z 20011KT 18/04 A3009 RMK A01 T01800042  RH  040%=      5-min Rain = 0
KCO2 161823Z 19011KT 18/04 A3009 RMK A01 T01810041  RH  039%=      5-min Rain = 0
KCO2 161824Z 19011KT 18/04 A3009 RMK A01 T01800041  RH  040%=      5-min Rain = 0
KCO2 161825Z 20012KT 18/04 A3009 RMK A01 T01840044  RH  040%=      5-min Rain = 0
KCO2 161826Z 20012KT 18/04 A3009 RMK A01 T01840042  RH  039%=      5-min Rain = 0
KCO2 161827Z 20008KT 18/04 A3009 RMK A01 T01830042  RH  039%=      5-min Rain = 0
KCO2 161828Z 20011KT 18/04 A3009 RMK A01 T01840043  RH  039%=      5-min Rain = 0
KCO2 161829Z 20009KT 18/04 A3009 RMK A01 T01840041  RH  039%=      5-min Rain = 0
KCO2 161830Z 18013KT 18/04 A3009 RMK A01 T01840042  RH  039%=      5-min Rain = 0
KCO2 161831Z 18013KT 18/04 A3008 RMK A01 T01840042  RH  039%=      5-min Rain = 0
KCO2 161832Z 18011KT 18/04 A3008 RMK A01 T01830041  RH  039%=      5-min Rain = 0
KCO2 161833Z 18010KT 18/04 A3008 RMK A01 T01810041  RH  039%=      5-min Rain = 0
KCO2 161834Z 19009KT 18/04 A3008 RMK A01 T01800040  RH  039%=      5-min Rain = 0
KCO2 161835Z 18009KT 18/04 A3008 RMK A01 T01800041  RH  040%=      5-min Rain = 0
KCO2 161836Z 17007KT 18/04 A3008 RMK A01 T01810041  RH  039%=      5-min Rain = 0
KCO2 161837Z 19013KT 18/04 A3008 RMK A01 T01810041  RH  040%=      5-min Rain = 0
KCO2 161838Z 18012KT 18/04 A3008 RMK A01 T01810041  RH  040%=      5-min Rain = 0
KCO2 161839Z 19013KT 18/04 A3008 RMK A01 T01810042  RH  040%=      5-min Rain = 0
KCO2 161840Z 20010KT 18/04 A3008 RMK A01 T01800041  RH  040%=      5-min Rain = 0
KCO2 161841Z 20011KT 18/04 A3008 RMK A01 T01790041  RH  040%=      5-min Rain = 0
KCO2 161842Z 21011KT 18/04 A3008 RMK A01 T01790042  RH  040%=      5-min Rain = 0
KCO2 161843Z 20011KT 18/04 A3007 RMK A01 T01810043  RH  040%=      5-min Rain = 0
KCO2 161844Z 20012KT 18/04 A3007 RMK A01 T01820042  RH  040%=      5-min Rain = 0
KCO2 161845Z 20012KT 18/04 A3007 RMK A01 T01820042  RH  040%=      5-min Rain = 0
KCO2 161846Z 19012KT 18/04 A3007 RMK A01 T01820042  RH  040%=      5-min Rain = 0
KCO2 161847Z 19011KT 18/04 A3007 RMK A01 T01810042  RH  040%=      5-min Rain = 0
KCO2 161848Z 18010KT 18/04 A3007 RMK A01 T01800042  RH  040%=      5-min Rain = 0
KCO2 161849Z 19008KT 18/04 A3007 RMK A01 T01800042  RH  040%=      5-min Rain = 0
KCO2 161850Z 19009KT 18/04 A3007 RMK A01 T01810042  RH  040%=      5-min Rain = 0
KCO2 161851Z 19009KT 18/04 A3007 RMK A01 T01830044  RH  040%=      5-min Rain = 0
KCO2 161852Z 19010KT 18/04 A3007 RMK A01 T01840044  RH  039%=      5-min Rain = 0
KCO2 161853Z 19009KT 19/04 A3007 RMK A01 T01850043  RH  039%=      5-min Rain = 0
KCO2 161854Z 21010KT 18/04 A3007 RMK A01 T01840043  RH  039%=      5-min Rain = 0
KCO2 161855Z 18012KT 19/04 A3007 RMK A01 T01850044  RH  039%=      5-min Rain = 0
KCO2 161856Z 19011KT 19/04 A3007 RMK A01 T01850043  RH  039%=      5-min Rain = 0
KCO2 161857Z 19009KT 19/04 A3006 RMK A01 T01850044  RH  039%=      5-min Rain = 0
KCO2 161858Z 19007KT 19/05 A3006 RMK A01 T01860045  RH  039%=      5-min Rain = 0
KCO2 161859Z 18011G17KT 19/05 A3006 RMK A01 T01890046  RH  039%=      5-min Rain = 0
KCO2 161900Z 19013KT 19/05 A3006 RMK A01 T01910045  RH  038%=      5-min Rain = 0
KCO2 161901Z 18011KT 19/04 A3006 RMK A01 T01910044  RH  038%=      5-min Rain = 0
KCO2 161902Z 19009KT 19/04 A3006 RMK A01 T01890043  RH  038%=      5-min Rain = 0
KCO2 161903Z 20007G12KT 19/04 A3006 RMK A01 T01870044  RH  039%=      5-min Rain = 0
KCO2 161904Z 20009KT 19/04 A3006 RMK A01 T01880044  RH  038%=      5-min Rain = 0
KCO2 161905Z 18009KT 19/05 A3005 RMK A01 T01890045  RH  039%=      5-min Rain = 0
KCO2 161906Z 18011KT 19/05 A3005 RMK A01 T01910045  RH  038%=      5-min Rain = 0
KCO2 161907Z 18012KT 19/04 A3005 RMK A01 T01900044  RH  038%=      5-min Rain = 0
KCO2 161908Z 18011KT 19/04 A3006 RMK A01 T01880043  RH  038%=      5-min Rain = 0
KCO2 161909Z 17010KT 19/04 A3006 RMK A01 T01850042  RH  039%=      5-min Rain = 0
KCO2 161910Z 17012G18KT 18/04 A3005 RMK A01 T01830043  RH  039%=      5-min Rain = 0
KCO2 161911Z 19014KT 19/05 A3005 RMK A01 T01850045  RH  040%=      5-min Rain = 0
KCO2 161912Z 18012KT 19/04 A3005 RMK A01 T01850043  RH  039%=      5-min Rain = 0
KCO2 161913Z 19011KT 18/04 A3005 RMK A01 T01840044  RH  039%=      5-min Rain = 0
KCO2 161914Z 19011KT 18/04 A3005 RMK A01 T01830043  RH  039%=      5-min Rain = 0
KCO2 161915Z 19009KT 18/04 A3005 RMK A01 T01810043  RH  040%=      5-min Rain = 0
KCO2 161916Z 17010KT 18/04 A3005 RMK A01 T01810044  RH  040%=      5-min Rain = 0
KCO2 161917Z 17009KT 18/04 A3005 RMK A01 T01820044  RH  040%=      5-min Rain = 0
KCO2 161918Z 18013KT 18/04 A3005 RMK A01 T01830044  RH  040%=      5-min Rain = 0
KCO2 161919Z 19011KT 18/04 A3005 RMK A01 T01830043  RH  040%=      5-min Rain = 0
KCO2 161920Z 19010KT 18/04 A3005 RMK A01 T01820044  RH  040%=      5-min Rain = 0
KCO2 161921Z 20009KT 18/04 A3005 RMK A01 T01820044  RH  040%=      5-min Rain = 0
KCO2 161922Z 19008KT 19/05 A3005 RMK A01 T01850046  RH  040%=      5-min Rain = 0
KCO2 161923Z 16010KT 19/05 A3005 RMK A01 T01870046  RH  039%=      5-min Rain = 0
KCO2 161924Z 19011KT 19/05 A3004 RMK A01 T01870046  RH  039%=      5-min Rain = 0
KCO2 161925Z 19011KT 19/05 A3005 RMK A01 T01880046  RH  039%=      5-min Rain = 0
KCO2 161926Z 20011KT 19/05 A3005 RMK A01 T01870045  RH  039%=      5-min Rain = 0
KCO2 161927Z 19013KT 19/05 A3004 RMK A01 T01860045  RH  039%=      5-min Rain = 0
KCO2 161928Z 20008KT 19/05 A3005 RMK A01 T01850045  RH  040%=      5-min Rain = 0
KCO2 161929Z 19010KT 19/05 A3005 RMK A01 T01860046  RH  040%=      5-min Rain = 0
KCO2 161930Z 17010KT 19/05 A3005 RMK A01 T01870045  RH  039%=      5-min Rain = 0
KCO2 161931Z 18010KT 19/05 A3005 RMK A01 T01870045  RH  039%=      5-min Rain = 0
KCO2 161932Z 17013KT 19/05 A3004 RMK A01 T01870046  RH  039%=      5-min Rain = 0
KCO2 161933Z 17011KT 19/05 A3004 RMK A01 T01870046  RH  039%=      5-min Rain = 0
KCO2 161934Z 17011KT 19/05 A3004 RMK A01 T01890047  RH  039%=      5-min Rain = 0
KCO2 161935Z 19009KT 19/05 A3004 RMK A01 T01900047  RH  039%=      5-min Rain = 0
KCO2 161936Z 19010KT 19/05 A3004 RMK A01 T01930048  RH  038%=      5-min Rain = 0
KCO2 161937Z 19012KT 20/05 A3004 RMK A01 T01950048  RH  038%=      5-min Rain = 0
KCO2 161938Z 18010KT 20/05 A3004 RMK A01 T01970048  RH  037%=      5-min Rain = 0
KCO2 161939Z 17009KT 20/05 A3004 RMK A01 T01980048  RH  037%=      5-min Rain = 0
KCO2 161940Z 18013KT 20/05 A3004 RMK A01 T01990048  RH  037%=      5-min Rain = 0
KCO2 161941Z 20012KT 20/05 A3004 RMK A01 T01990046  RH  037%=      5-min Rain = 0
KCO2 161942Z 19009KT 19/05 A3004 RMK A01 T01940045  RH  037%=      5-min Rain = 0
KCO2 161943Z 18011G16KT 19/05 A3004 RMK A01 T01920046  RH  038%=      5-min Rain = 0
KCO2 161944Z 20014KT 19/05 A3004 RMK A01 T01910046  RH  038%=      5-min Rain = 0
KCO2 161945Z 20012KT 19/05 A3004 RMK A01 T01920046  RH  038%=      5-min Rain = 0
KCO2 161946Z 20010KT 19/05 A3003 RMK A01 T01920047  RH  038%=      5-min Rain = 0
KCO2 161947Z 21009KT 19/05 A3003 RMK A01 T01930048  RH  038%=      5-min Rain = 0
KCO2 161948Z 19009G14KT 20/05 A3003 RMK A01 T01970050  RH  038%=      5-min Rain = 0
KCO2 161949Z 19008KT 20/05 A3003 RMK A01 T01990048  RH  037%=      5-min Rain = 0
KCO2 161950Z 16010KT 20/05 A3003 RMK A01 T01990049  RH  037%=      5-min Rain = 0
KCO2 161951Z 18010KT 20/05 A3003 RMK A01 T01990048  RH  037%=      5-min Rain = 0
KCO2 161952Z 17010KT 20/05 A3003 RMK A01 T01970048  RH  037%=      5-min Rain = 0
KCO2 161953Z 16011KT 20/05 A3003 RMK A01 T01960048  RH  038%=      5-min Rain = 0
KCO2 161954Z 15011KT 20/05 A3003 RMK A01 T01970049  RH  038%=      5-min Rain = 0
KCO2 161955Z 17011KT 20/05 A3003 RMK A01 T01980050  RH  038%=      5-min Rain = 0
KCO2 161956Z 18015KT 20/05 A3003 RMK A01 T02010050  RH  037%=      5-min Rain = 0
KCO2 161957Z 19013KT 20/05 A3003 RMK A01 T02020049  RH  036%=      5-min Rain = 0
KCO2 161958Z 18013KT 20/05 A3003 RMK A01 T02030049  RH  036%=      5-min Rain = 0
KCO2 161959Z 18012KT 20/05 A3003 RMK A01 T02020049  RH  037%=      5-min Rain = 0
KCO2 162000Z 18010KT 20/05 A3003 RMK A01 T02020049  RH  037%=      5-min Rain = 0
KCO2 162001Z 18011KT 20/05 A3003 RMK A01 T02030050  RH  036%=      5-min Rain = 0
KCO2 162002Z 19011KT 20/05 A3003 RMK A01 T02040049  RH  036%=      5-min Rain = 0
KCO2 162003Z 17012KT 20/05 A3002 RMK A01 T02030050  RH  036%=      5-min Rain = 0
KCO2 162004Z 16011KT 20/05 A3002 RMK A01 T02030050  RH  037%=      5-min Rain = 0
KCO2 162005Z 18009KT 20/05 A3002 RMK A01 T02040051  RH  037%=      5-min Rain = 0
KCO2 162006Z 17011KT 21/05 A3002 RMK A01 T02060051  RH  036%=      5-min Rain = 0
KCO2 162007Z 20012KT 21/05 A3002 RMK A01 T02070049  RH  036%=      5-min Rain = 0
KCO2 162008Z 19012KT 21/05 A3002 RMK A01 T02070047  RH  035%=      5-min Rain = 0
KCO2 162009Z 19011KT 21/05 A3002 RMK A01 T02060047  RH  035%=      5-min Rain = 0
KCO2 162010Z 19011KT 21/05 A3002 RMK A01 T02070049  RH  036%=      5-min Rain = 0
KCO2 162011Z 18012KT 21/05 A3002 RMK A01 T02080050  RH  036%=      5-min Rain = 0
KCO2 162012Z 18010KT 21/05 A3002 RMK A01 T02070049  RH  035%=      5-min Rain = 0
KCO2 162013Z 19012KT 21/05 A3002 RMK A01 T02070049  RH  035%=      5-min Rain = 0
KCO2 162014Z 18014KT 21/05 A3002 RMK A01 T02060049  RH  036%=      5-min Rain = 0
KCO2 162015Z 18013KT 20/05 A3002 RMK A01 T02030049  RH  036%=      5-min Rain = 0
KCO2 162016Z 18014KT 20/05 A3002 RMK A01 T02000049  RH  037%=      5-min Rain = 0
KCO2 162017Z 18011KT 20/05 A3002 RMK A01 T01980048  RH  037%=      5-min Rain = 0
KCO2 162018Z 19011KT 20/05 A3002 RMK A01 T01960049  RH  038%=      5-min Rain = 0
KCO2 162019Z 18016KT 20/05 A3002 RMK A01 T01950049  RH  038%=      5-min Rain = 0
KCO2 162020Z 18015KT 19/05 A3002 RMK A01 T01940049  RH  038%=      5-min Rain = 0
KCO2 162021Z 19013KT 19/05 A3002 RMK A01 T01930049  RH  039%=      5-min Rain = 0
KCO2 162022Z 17011KT 19/05 A3002 RMK A01 T01940050  RH  039%=      5-min Rain = 0
KCO2 162023Z 17012KT 20/05 A3002 RMK A01 T01950050  RH  038%=      5-min Rain = 0
KCO2 162024Z 17012KT 20/05 A3002 RMK A01 T01970050  RH  038%=      5-min Rain = 0
KCO2 162025Z 18010KT 20/05 A3002 RMK A01 T01990050  RH  038%=      5-min Rain = 0
KCO2 162026Z 16009KT 20/05 A3002 RMK A01 T02010052  RH  038%=      5-min Rain = 0
KCO2 162027Z 19009KT 20/05 A3002 RMK A01 T02040053  RH  037%=      5-min Rain = 0
KCO2 162028Z 18011KT 21/05 A3002 RMK A01 T02070052  RH  036%=      5-min Rain = 0
KCO2 162029Z 18010KT 21/05 A3002 RMK A01 T02080051  RH  036%=      5-min Rain = 0
KCO2 162030Z 20009KT 21/05 A3002 RMK A01 T02070051  RH  036%=      5-min Rain = 0
KCO2 162031Z 20010KT 21/05 A3001 RMK A01 T02070051  RH  036%=      5-min Rain = 0
KCO2 162032Z 19010KT 21/05 A3001 RMK A01 T02070051  RH  036%=      5-min Rain = 0
KCO2 162033Z 17014KT 21/05 A3001 RMK A01 T02060051  RH  036%=      5-min Rain = 0
KCO2 162034Z 17012KT 21/05 A3001 RMK A01 T02080050  RH  036%=      5-min Rain = 0
KCO2 162035Z 17013KT 21/05 A3001 RMK A01 T02070049  RH  036%=      5-min Rain = 0
KCO2 162036Z 18011KT 21/05 A3001 RMK A01 T02060050  RH  036%=      5-min Rain = 0
KCO2 162037Z 20012KT 21/05 A3001 RMK A01 T02070051  RH  036%=      5-min Rain = 0
KCO2 162038Z 20014KT 21/05 A3001 RMK A01 T02090050  RH  035%=      5-min Rain = 0
KCO2 162039Z 20013KT 21/05 A3001 RMK A01 T02100050  RH  035%=      5-min Rain = 0
KCO2 162040Z 19012KT 21/05 A3001 RMK A01 T02100050  RH  035%=      5-min Rain = 0
KCO2 162041Z 20013KT 21/05 A3001 RMK A01 T02100050  RH  035%=      5-min Rain = 0
KCO2 162042Z 18011KT 21/05 A3001 RMK A01 T02100050  RH  035%=      5-min Rain = 0
KCO2 162043Z 20012KT 21/05 A3001 RMK A01 T02090050  RH  035%=      5-min Rain = 0
KCO2 162044Z 21013KT 21/05 A3001 RMK A01 T02100050  RH  035%=      5-min Rain = 0
KCO2 162045Z 21012KT 21/05 A3001 RMK A01 T02110050  RH  035%=      5-min Rain = 0
KCO2 162046Z 20011KT 21/05 A3001 RMK A01 T02110050  RH  035%=      5-min Rain = 0
KCO2 162047Z 20011KT 21/05 A3001 RMK A01 T02120051  RH  035%=      5-min Rain = 0
KCO2 162048Z 20012KT 21/05 A3001 RMK A01 T02130049  RH  034%=      5-min Rain = 0
KCO2 162049Z 18013KT 21/05 A3001 RMK A01 T02120049  RH  034%=      5-min Rain = 0
KCO2 162050Z 18013KT 21/05 A3001 RMK A01 T02110048  RH  034%=      5-min Rain = 0
KCO2 162051Z 18013KT 21/05 A3001 RMK A01 T02110048  RH  034%=      5-min Rain = 0
KCO2 162052Z 17012KT 21/05 A3001 RMK A01 T02120049  RH  034%=      5-min Rain = 0
KCO2 162053Z 17016KT 21/05 A30 RMK A01 T02140049  RH  034%=      5-min Rain = 0
KCO2 162054Z 18015KT 21/05 A30 RMK A01 T02140049  RH  034%=      5-min Rain = 0
KCO2 162055Z 18012KT 21/05 A30 RMK A01 T02140048  RH  034%=      5-min Rain = 0
KCO2 162056Z 19012KT 21/05 A30 RMK A01 T02140048  RH  034%=      5-min Rain = 0
KCO2 162057Z 19010KT 22/05 A30 RMK A01 T02150049  RH  034%=      5-min Rain = 0
KCO2 162058Z 18014KT 22/05 A30 RMK A01 T02170050  RH  034%=      5-min Rain = 0
KCO2 162059Z 18012KT 22/05 A3001 RMK A01 T02180048  RH  033%=      5-min Rain = 0
KCO2 162100Z 19013KT 22/05 A3001 RMK A01 T02190048  RH  033%=      5-min Rain = 0
KCO2 162101Z 21013KT 22/05 A3001 RMK A01 T02180048  RH  033%=      5-min Rain = 0
KCO2 162102Z 19012KT 22/05 A3001 RMK A01 T02160048  RH  033%=      5-min Rain = 0
KCO2 162103Z 18012G18KT 22/05 A30 RMK A01 T02160048  RH  033%=      5-min Rain = 0
KCO2 162104Z 19013KT 22/05 A30 RMK A01 T02160048  RH  033%=      5-min Rain = 0
KCO2 162105Z 19010KT 22/05 A30 RMK A01 T02170049  RH  033%=      5-min Rain = 0
KCO2 162106Z 20013KT 22/05 A30 RMK A01 T02180049  RH  033%=      5-min Rain = 0
KCO2 162107Z 18014KT 22/05 A30 RMK A01 T02180049  RH  033%=      5-min Rain = 0
KCO2 162108Z 18011KT 22/05 A30 RMK A01 T02180049  RH  033%=      5-min Rain = 0
KCO2 162109Z 19011KT 22/05 A30 RMK A01 T02180049  RH  033%=      5-min Rain = 0
KCO2 162110Z 18012KT 22/05 A30 RMK A01 T02180049  RH  033%=      5-min Rain = 0
KCO2 162111Z 19013KT 22/05 A30 RMK A01 T02180048  RH  033%=      5-min Rain = 0
KCO2 162112Z 18011KT 22/05 A30 RMK A01 T02160047  RH  033%=      5-min Rain = 0
KCO2 162113Z 17013KT 21/05 A30 RMK A01 T02140048  RH  034%=      5-min Rain = 0
KCO2 162114Z 19014KT 22/05 A30 RMK A01 T02150049  RH  034%=      5-min Rain = 0
KCO2 162115Z 21014KT 22/05 A30 RMK A01 T02160049  RH  033%=      5-min Rain = 0
KCO2 162116Z 20013G20KT 22/05 A30 RMK A01 T02160048  RH  034%=      5-min Rain = 0
KCO2 162117Z 20010KT 21/05 A30 RMK A01 T02140047  RH  033%=      5-min Rain = 0
KCO2 162118Z 21012KT 21/05 A30 RMK A01 T02140047  RH  034%=      5-min Rain = 0
KCO2 162119Z 19011KT 21/05 A30 RMK A01 T02140047  RH  034%=      5-min Rain = 0
KCO2 162120Z 19016KT 21/05 A30 RMK A01 T02140047  RH  033%=      5-min Rain = 0
KCO2 162121Z 19013KT 22/05 A30 RMK A01 T02150046  RH  033%=      5-min Rain = 0
KCO2 162122Z 19011KT 22/05 A30 RMK A01 T02150046  RH  033%=      5-min Rain = 0
KCO2 162123Z 18012KT 22/05 A30 RMK A01 T02150046  RH  033%=      5-min Rain = 0
KCO2 162124Z 19011KT 22/05 A30 RMK A01 T02160046  RH  033%=      5-min Rain = 0
KCO2 162125Z 18011KT 22/05 A30 RMK A01 T02170047  RH  033%=      5-min Rain = 0
KCO2 162126Z 18014KT 22/05 A30 RMK A01 T02180046  RH  032%=      5-min Rain = 0
KCO2 162127Z 18012KT 22/05 A30 RMK A01 T02180046  RH  032%=      5-min Rain = 0
KCO2 162128Z 19012KT 22/05 A30 RMK A01 T02180046  RH  033%=      5-min Rain = 0
KCO2 162129Z 18011KT 22/05 A30 RMK A01 T02190045  RH  032%=      5-min Rain = 0
KCO2 162130Z 17014KT 22/05 A2999 RMK A01 T02220046  RH  032%=      5-min Rain = 0
KCO2 162131Z 18013KT 22/05 A2999 RMK A01 T02230045  RH  031%=      5-min Rain = 0
KCO2 162132Z 17014KT 22/04 A2999 RMK A01 T02200044  RH  032%=      5-min Rain = 0
KCO2 162133Z 17012KT 22/04 A2999 RMK A01 T02190044  RH  032%=      5-min Rain = 0
KCO2 162134Z 17012KT 22/05 A2999 RMK A01 T02180045  RH  032%=      5-min Rain = 0
KCO2 162135Z 17012G17KT 22/05 A2999 RMK A01 T02190045  RH  032%=      5-min Rain = 0
KCO2 162136Z 17016KT 22/04 A2999 RMK A01 T02200044  RH  032%=      5-min Rain = 0
KCO2 162137Z 18012KT 22/04 A2999 RMK A01 T02190044  RH  032%=      5-min Rain = 0
KCO2 162138Z 18011KT 22/04 A2999 RMK A01 T02190044  RH  032%=      5-min Rain = 0
KCO2 162139Z 19012KT 22/04 A2999 RMK A01 T02190043  RH  032%=      5-min Rain = 0
KCO2 162140Z 20010KT 22/04 A2999 RMK A01 T02190042  RH  032%=      5-min Rain = 0
KCO2 162141Z 20011KT 22/04 A2999 RMK A01 T02180043  RH  032%=      5-min Rain = 0
KCO2 162142Z 18012KT 22/04 A2999 RMK A01 T02190043  RH  032%=      5-min Rain = 0
KCO2 162143Z 18015KT 22/04 A2999 RMK A01 T02190043  RH  032%=      5-min Rain = 0
KCO2 162144Z 19013KT 22/04 A2999 RMK A01 T02180042  RH  032%=      5-min Rain = 0
KCO2 162145Z 19013KT 22/04 A2999 RMK A01 T02170043  RH  032%=      5-min Rain = 0
KCO2 162146Z 19012KT 22/04 A2999 RMK A01 T02170043  RH  032%=      5-min Rain = 0
KCO2 162147Z 19010KT 22/04 A2999 RMK A01 T02170043  RH  032%=      5-min Rain = 0
KCO2 162148Z 20015KT 22/04 A2999 RMK A01 T02180044  RH  032%=      5-min Rain = 0
KCO2 162149Z 19016KT 22/04 A2999 RMK A01 T02180044  RH  032%=      5-min Rain = 0
KCO2 162150Z 19011KT 22/04 A2999 RMK A01 T02160044  RH  032%=      5-min Rain = 0
KCO2 162151Z 18011KT 22/05 A2999 RMK A01 T02160045  RH  033%=      5-min Rain = 0
KCO2 162152Z 18010KT 22/05 A2999 RMK A01 T02170046  RH  033%=      5-min Rain = 0
KCO2 162153Z 18010KT 22/05 A2999 RMK A01 T02190046  RH  032%=      5-min Rain = 0
KCO2 162154Z 19012KT 22/05 A2999 RMK A01 T02200045  RH  032%=      5-min Rain = 0
KCO2 162155Z 19014KT 22/04 A2999 RMK A01 T02180044  RH  032%=      5-min Rain = 0
KCO2 162156Z 19013KT 21/04 A2999 RMK A01 T02140044  RH  033%=      5-min Rain = 0
KCO2 162157Z 18011KT 21/04 A2999 RMK A01 T02110044  RH  033%=      5-min Rain = 0
KCO2 162158Z 18012KT 21/05 A2999 RMK A01 T02110045  RH  034%=      5-min Rain = 0
KCO2 162159Z 18010KT 21/05 A2999 RMK A01 T02100045  RH  034%=      5-min Rain = 0
KCO2 162200Z 18011KT 21/05 A2999 RMK A01 T02100045  RH  034%=      5-min Rain = 0
KCO2 162201Z 18013G18KT 21/05 A2999 RMK A01 T02100045  RH  034%=      5-min Rain = 0
KCO2 162202Z 18015KT 21/04 A2999 RMK A01 T02090044  RH  034%=      5-min Rain = 0
KCO2 162203Z 18014KT 21/04 A2999 RMK A01 T02080043  RH  034%=      5-min Rain = 0
KCO2 162204Z 18013KT 21/04 A2999 RMK A01 T02070044  RH  034%=      5-min Rain = 0
KCO2 162205Z 19012KT 21/04 A2999 RMK A01 T02060044  RH  034%=      5-min Rain = 0
KCO2 162206Z 19011KT 21/04 A2999 RMK A01 T02060044  RH  035%=      5-min Rain = 0
KCO2 162207Z 20010KT 21/05 A2999 RMK A01 T02070045  RH  035%=      5-min Rain = 0
KCO2 162208Z 18009KT 21/05 A2999 RMK A01 T02080046  RH  035%=      5-min Rain = 0
KCO2 162209Z 18011KT 21/05 A2999 RMK A01 T02090046  RH  034%=      5-min Rain = 0
KCO2 162210Z 18012KT 21/05 A2999 RMK A01 T02090045  RH  034%=      5-min Rain = 0
KCO2 162211Z 19013KT 21/05 A2999 RMK A01 T02090045  RH  034%=      5-min Rain = 0
KCO2 162212Z 18009KT 21/04 A2999 RMK A01 T02080044  RH  034%=      5-min Rain = 0
KCO2 162213Z 18011KT 21/05 A2999 RMK A01 T02070045  RH  035%=      5-min Rain = 0
KCO2 162214Z 18012KT 21/04 A2999 RMK A01 T02050044  RH  035%=      5-min Rain = 0
KCO2 162215Z 18009KT 21/05 A2999 RMK A01 T02050045  RH  035%=      5-min Rain = 0
KCO2 162216Z 18012KT 20/05 A2999 RMK A01 T02040045  RH  035%=      5-min Rain = 0
KCO2 162217Z 18010KT 20/05 A2999 RMK A01 T02040045  RH  035%=      5-min Rain = 0
KCO2 162218Z 18009KT 20/05 A2999 RMK A01 T02040046  RH  035%=      5-min Rain = 0
KCO2 162219Z 18008KT 20/05 A2999 RMK A01 T02040046  RH  035%=      5-min Rain = 0
KCO2 162220Z 18012KT 20/05 A2999 RMK A01 T02030046  RH  036%=      5-min Rain = 0
KCO2 162221Z 17009KT 20/05 A2999 RMK A01 T02040047  RH  035%=      5-min Rain = 0
KCO2 162222Z 18011KT 21/05 A2999 RMK A01 T02050047  RH  035%=      5-min Rain = 0
KCO2 162223Z 18011KT 21/05 A2999 RMK A01 T02070048  RH  035%=      5-min Rain = 0
KCO2 162224Z 19014KT 21/05 A2999 RMK A01 T02090048  RH  035%=      5-min Rain = 0
KCO2 162225Z 18013KT 21/05 A2999 RMK A01 T02090047  RH  034%=      5-min Rain = 0
KCO2 162226Z 18012KT 21/05 A2999 RMK A01 T02090046  RH  034%=      5-min Rain = 0
KCO2 162227Z 18011KT 21/05 A2999 RMK A01 T02090047  RH  035%=      5-min Rain = 0
KCO2 162228Z 18011G17KT 21/05 A2999 RMK A01 T02090046  RH  034%=      5-min Rain = 0
KCO2 162229Z 18012KT 21/05 A2999 RMK A01 T02090046  RH  034%=      5-min Rain = 0
KCO2 162230Z 18012KT 21/05 A2999 RMK A01 T02090046  RH  034%=      5-min Rain = 0
KCO2 162231Z 18011KT 21/05 A2999 RMK A01 T02090047  RH  034%=      5-min Rain = 0
KCO2 162232Z 17013KT 21/05 A2999 RMK A01 T02100047  RH  034%=      5-min Rain = 0
KCO2 162233Z 17013KT 21/05 A2999 RMK A01 T02090047  RH  034%=      5-min Rain = 0
KCO2 162234Z 17013KT 21/05 A2999 RMK A01 T02090047  RH  035%=      5-min Rain = 0
KCO2 162235Z 18011KT 21/05 A2998 RMK A01 T02070047  RH  035%=      5-min Rain = 0
KCO2 162236Z 18010KT 21/05 A2999 RMK A01 T02060047  RH  035%=      5-min Rain = 0
KCO2 162237Z 18012KT 21/05 A2999 RMK A01 T02050048  RH  036%=      5-min Rain = 0
KCO2 162238Z 17015KT 20/05 A2999 RMK A01 T02040048  RH  036%=      5-min Rain = 0
KCO2 162239Z 17014KT 20/05 A2999 RMK A01 T02020047  RH  036%=      5-min Rain = 0
KCO2 162240Z 17013KT 20/05 A2999 RMK A01 T02020047  RH  036%=      5-min Rain = 0
KCO2 162241Z 18011KT 20/05 A2999 RMK A01 T02020048  RH  036%=      5-min Rain = 0
KCO2 162242Z 18010KT 20/05 A2999 RMK A01 T02010048  RH  037%=      5-min Rain = 0
KCO2 162243Z 18010KT 20/05 A2999 RMK A01 T02000049  RH  037%=      5-min Rain = 0
KCO2 162244Z 18012KT 20/05 A2999 RMK A01 T01990049  RH  037%=      5-min Rain = 0
KCO2 162245Z 18013KT 20/05 A2999 RMK A01 T01980048  RH  037%=      5-min Rain = 0
KCO2 162246Z 18013KT 20/05 A2999 RMK A01 T01970048  RH  038%=      5-min Rain = 0
KCO2 162247Z 18012KT 20/05 A2999 RMK A01 T01970048  RH  038%=      5-min Rain = 0
KCO2 162248Z 18011KT 20/05 A2999 RMK A01 T01960048  RH  038%=      5-min Rain = 0
KCO2 162249Z 18012KT 20/05 A2999 RMK A01 T01960048  RH  038%=      5-min Rain = 0
KCO2 162250Z 18011KT 20/05 A2999 RMK A01 T01950048  RH  038%=      5-min Rain = 0
KCO2 162251Z 18012KT 20/05 A2999 RMK A01 T01950047  RH  038%=      5-min Rain = 0
KCO2 162252Z 18011KT 20/05 A2999 RMK A01 T01950047  RH  038%=      5-min Rain = 0
KCO2 162253Z 18011KT 20/05 A2999 RMK A01 T01950047  RH  038%=      5-min Rain = 0
KCO2 162254Z 18009KT 19/05 A2999 RMK A01 T01940047  RH  038%=      5-min Rain = 0
KCO2 162255Z 18012KT 19/05 A2999 RMK A01 T01940048  RH  038%=      5-min Rain = 0
KCO2 162256Z 18011KT 19/05 A2999 RMK A01 T01940047  RH  038%=      5-min Rain = 0
KCO2 162257Z 18009KT 19/05 A2999 RMK A01 T01930048  RH  038%=      5-min Rain = 0
KCO2 162258Z 18009KT 19/05 A2999 RMK A01 T01930048  RH  038%=      5-min Rain = 0
KCO2 162259Z 18010KT 19/05 A2999 RMK A01 T01930048  RH  038%=      5-min Rain = 0
KCO2 162300Z 18010KT 19/05 A2999 RMK A01 T01930047  RH  038%=      5-min Rain = 0
KCO2 162301Z 18009KT 19/05 A2999 RMK A01 T01940048  RH  038%=      5-min Rain = 0
KCO2 162302Z 18012KT 19/05 A2999 RMK A01 T01940047  RH  038%=      5-min Rain = 0
KCO2 162303Z 18013KT 20/05 A2999 RMK A01 T01950047  RH  038%=      5-min Rain = 0
KCO2 162304Z 18012KT 19/05 A2999 RMK A01 T01940047  RH  038%=      5-min Rain = 0
KCO2 162305Z 18012KT 19/05 A2999 RMK A01 T01940048  RH  038%=      5-min Rain = 0
KCO2 162306Z 17010KT 19/05 A2999 RMK A01 T01930048  RH  038%=      5-min Rain = 0
KCO2 162307Z 18010KT 19/05 A2999 RMK A01 T01930048  RH  038%=      5-min Rain = 0
KCO2 162308Z 18011KT 19/05 A2999 RMK A01 T01930049  RH  039%=      5-min Rain = 0
KCO2 162309Z 18010KT 19/05 A2999 RMK A01 T01920048  RH  039%=      5-min Rain = 0
KCO2 162310Z 19009KT 19/05 A2999 RMK A01 T01910048  RH  039%=      5-min Rain = 0
KCO2 162311Z 19009KT 19/05 A2999 RMK A01 T01910049  RH  039%=      5-min Rain = 0
KCO2 162312Z 18009KT 19/05 A2999 RMK A01 T01900049  RH  039%=      5-min Rain = 0
KCO2 162313Z 18010KT 19/05 A2999 RMK A01 T01890049  RH  040%=      5-min Rain = 0
KCO2 162314Z 18013KT 19/05 A2999 RMK A01 T01880049  RH  040%=      5-min Rain = 0
KCO2 162315Z 18012KT 19/05 A2999 RMK A01 T01870049  RH  040%=      5-min Rain = 0
KCO2 162316Z 18013KT 19/05 A2999 RMK A01 T01870050  RH  040%=      5-min Rain = 0
KCO2 162317Z 18011KT 19/05 A2999 RMK A01 T01860049  RH  040%=      5-min Rain = 0
KCO2 162318Z 18011KT 19/05 A2999 RMK A01 T01860050  RH  041%=      5-min Rain = 0
KCO2 162319Z 18012KT 19/05 A2999 RMK A01 T01850049  RH  041%=      5-min Rain = 0
KCO2 162320Z 18013KT 18/05 A2999 RMK A01 T01840049  RH  041%=      5-min Rain = 0
KCO2 162321Z 18010KT 18/05 A2999 RMK A01 T01840049  RH  041%=      5-min Rain = 0
KCO2 162322Z 18010KT 18/05 A2999 RMK A01 T01830050  RH  041%=      5-min Rain = 0
KCO2 162323Z 18011KT 18/05 A30 RMK A01 T01820049  RH  042%=      5-min Rain = 0
KCO2 162324Z 18010KT 18/05 A30 RMK A01 T01810049  RH  042%=      5-min Rain = 0
KCO2 162325Z 19010KT 18/05 A30 RMK A01 T01810049  RH  042%=      5-min Rain = 0
KCO2 162326Z 18008KT 18/05 A30 RMK A01 T01800050  RH  042%=      5-min Rain = 0
KCO2 162327Z 18010KT 18/05 A30 RMK A01 T01800050  RH  042%=      5-min Rain = 0
KCO2 162328Z 19009KT 18/05 A30 RMK A01 T01790050  RH  042%=      5-min Rain = 0
KCO2 162329Z 19008KT 18/05 A30 RMK A01 T01780049  RH  043%=      5-min Rain = 0
KCO2 162330Z 18009KT 18/05 A30 RMK A01 T01780049  RH  043%=      5-min Rain = 0
KCO2 162331Z 18010KT 18/05 A30 RMK A01 T01770050  RH  043%=      5-min Rain = 0
KCO2 162332Z 18010KT 18/05 A30 RMK A01 T01770050  RH  043%=      5-min Rain = 0
KCO2 162333Z 18009KT 18/05 A30 RMK A01 T01770050  RH  043%=      5-min Rain = 0
KCO2 162334Z 18008KT 18/05 A30 RMK A01 T01760050  RH  043%=      5-min Rain = 0
KCO2 162335Z 18009KT 18/05 A30 RMK A01 T01760050  RH  044%=      5-min Rain = 0
KCO2 162336Z 18009KT 17/05 A30 RMK A01 T01740050  RH  044%=      5-min Rain = 0
KCO2 162337Z 18009KT 17/05 A30 RMK A01 T01730050  RH  044%=      5-min Rain = 0
KCO2 162338Z 18009KT 17/05 A30 RMK A01 T01730050  RH  044%=      5-min Rain = 0
KCO2 162339Z 18009KT 17/05 A30 RMK A01 T01720050  RH  044%=      5-min Rain = 0
KCO2 162340Z 18009KT 17/05 A30 RMK A01 T01710050  RH  045%=      5-min Rain = 0
KCO2 162341Z 18010KT 17/05 A3001 RMK A01 T01710050  RH  045%=      5-min Rain = 0
KCO2 162342Z 18009KT 17/05 A3001 RMK A01 T01700050  RH  045%=      5-min Rain = 0
KCO2 162343Z 18008KT 17/05 A3001 RMK A01 T01700051  RH  045%=      5-min Rain = 0
KCO2 162344Z 18009KT 17/05 A3001 RMK A01 T01690051  RH  045%=      5-min Rain = 0
KCO2 162345Z 18009KT 17/05 A3001 RMK A01 T01680050  RH  046%=      5-min Rain = 0
KCO2 162346Z 18009KT 17/05 A3001 RMK A01 T01670051  RH  046%=      5-min Rain = 0
KCO2 162347Z 18008KT 17/05 A3001 RMK A01 T01670051  RH  046%=      5-min Rain = 0
KCO2 162348Z 18009KT 17/05 A3001 RMK A01 T01660051  RH  046%=      5-min Rain = 0
KCO2 162349Z 18008KT 17/05 A3001 RMK A01 T01660051  RH  046%=      5-min Rain = 0
KCO2 162350Z 19008KT 17/05 A3001 RMK A01 T01650051  RH  047%=      5-min Rain = 0
KCO2 162351Z 18008KT 17/05 A3001 RMK A01 T01650051  RH  047%=      5-min Rain = 0
KCO2 162352Z 18008KT 17/05 A3001 RMK A01 T01650051  RH  047%=      5-min Rain = 0
KCO2 162353Z 18009KT 16/05 A3001 RMK A01 T01640051  RH  047%=      5-min Rain = 0
KCO2 162354Z 18009KT 16/05 A3001 RMK A01 T01630051  RH  047%=      5-min Rain = 0
KCO2 162355Z 18008KT 16/05 A3001 RMK A01 T01630051  RH  047%=      5-min Rain = 0
KCO2 162356Z 18009KT 16/05 A3001 RMK A01 T01630051  RH  047%=      5-min Rain = 0
KCO2 162357Z 18010KT 16/05 A3001 RMK A01 T01630051  RH  047%=      5-min Rain = 0
KCO2 162358Z 18009KT 16/05 A3001 RMK A01 T01630051  RH  048%=      5-min Rain = 0
KCO2 162359Z 19007KT 16/05 A3001 RMK A01 T01630052  RH  048%=      5-min Rain = 0
KCO2 170000Z 18007KT 16/05 A3001 RMK A01 T01620051  RH  048%=      5-min Rain = 0
KCO2 170001Z 18007KT 16/05 A3001 RMK A01 T01610051  RH  048%=      5-min Rain = 0
KCO2 170002Z 19007KT 16/05 A3001 RMK A01 T01600051  RH  048%=      5-min Rain = 0
KCO2 170003Z 18007KT 16/05 A3001 RMK A01 T01590051  RH  048%=      5-min Rain = 0
KCO2 170004Z 18007KT 16/05 A3001 RMK A01 T01590051  RH  049%=      5-min Rain = 0
KCO2 170005Z 18007KT 16/05 A3001 RMK A01 T01580051  RH  049%=      5-min Rain = 0
KCO2 170006Z 19007KT 16/05 A3001 RMK A01 T01570051  RH  049%=      5-min Rain = 0
KCO2 170007Z 19008KT 16/05 A3001 RMK A01 T01570051  RH  049%=      5-min Rain = 0
KCO2 170008Z 18007KT 16/05 A3001 RMK A01 T01570050  RH  049%=      5-min Rain = 0
KCO2 170009Z 19008KT 16/05 A3001 RMK A01 T01560050  RH  049%=      5-min Rain = 0
KCO2 170010Z 18007KT 16/05 A3001 RMK A01 T01550050  RH  050%=      5-min Rain = 0
KCO2 170011Z 18007KT 16/05 A3001 RMK A01 T01550051  RH  050%=      5-min Rain = 0
KCO2 170012Z 18007KT 15/05 A3001 RMK A01 T01530050  RH  050%=      5-min Rain = 0
KCO2 170013Z 18007KT 15/05 A3001 RMK A01 T01520050  RH  050%=      5-min Rain = 0
KCO2 170014Z 18007KT 15/05 A3001 RMK A01 T01520050  RH  051%=      5-min Rain = 0
KCO2 170015Z 18007KT 15/05 A3001 RMK A01 T01510050  RH  051%=      5-min Rain = 0
KCO2 170016Z 18007KT 15/05 A3001 RMK A01 T01500050  RH  051%=      5-min Rain = 0
KCO2 170017Z 19007KT 15/05 A3001 RMK A01 T01500050  RH  051%=      5-min Rain = 0
KCO2 170018Z 18007KT 15/05 A3001 RMK A01 T01490050  RH  052%=      5-min Rain = 0
KCO2 170019Z 18007KT 15/05 A3001 RMK A01 T01480050  RH  052%=      5-min Rain = 0
KCO2 170020Z 18007KT 15/05 A3001 RMK A01 T01480050  RH  052%=      5-min Rain = 0
KCO2 170021Z 18007KT 15/05 A3001 RMK A01 T01470050  RH  052%=      5-min Rain = 0
KCO2 170022Z 18007KT 15/05 A3001 RMK A01 T01470050  RH  052%=      5-min Rain = 0
KCO2 170023Z 18007KT 15/05 A3001 RMK A01 T01470050  RH  052%=      5-min Rain = 0
KCO2 170024Z 18007KT 15/05 A3001 RMK A01 T01460050  RH  052%=      5-min Rain = 0
KCO2 170025Z 18007KT 15/05 A3001 RMK A01 T01450050  RH  053%=      5-min Rain = 0
KCO2 170026Z 18007KT 15/05 A3001 RMK A01 T01450050  RH  053%=      5-min Rain = 0
KCO2 170027Z 18007KT 14/05 A3001 RMK A01 T01440050  RH  053%=      5-min Rain = 0
KCO2 170028Z 18007KT 14/05 A3001 RMK A01 T01440050  RH  053%=      5-min Rain = 0
KCO2 170029Z 18007KT 14/05 A3001 RMK A01 T01440050  RH  053%=      5-min Rain = 0
KCO2 170030Z 18007KT 14/05 A3001 RMK A01 T01440050  RH  053%=      5-min Rain = 0
KCO2 170031Z 18007KT 14/05 A3001 RMK A01 T01440050  RH  053%=      5-min Rain = 0
KCO2 170032Z 18006KT 14/05 A3001 RMK A01 T01440050  RH  053%=      5-min Rain = 0
KCO2 170033Z 18007KT 14/05 A3001 RMK A01 T01440050  RH  053%=      5-min Rain = 0
KCO2 170034Z 18007KT 14/05 A3001 RMK A01 T01430050  RH  054%=      5-min Rain = 0
KCO2 170035Z 18007KT 14/05 A3001 RMK A01 T01430050  RH  054%=      5-min Rain = 0
KCO2 170036Z 18007KT 14/05 A3001 RMK A01 T01430051  RH  054%=      5-min Rain = 0
KCO2 170037Z 19007KT 14/05 A3001 RMK A01 T01420051  RH  054%=      5-min Rain = 0
KCO2 170038Z 19007KT 14/05 A3001 RMK A01 T01420051  RH  054%=      5-min Rain = 0
KCO2 170039Z 18007KT 14/05 A3001 RMK A01 T01420050  RH  054%=      5-min Rain = 0
KCO2 170040Z 18007KT 14/05 A3001 RMK A01 T01420051  RH  054%=      5-min Rain = 0
KCO2 170041Z 18007KT 14/05 A3001 RMK A01 T01420051  RH  054%=      5-min Rain = 0
KCO2 170042Z 18007KT 14/05 A3001 RMK A01 T01420050  RH  054%=      5-min Rain = 0
KCO2 170043Z 18007KT 14/05 A3001 RMK A01 T01410051  RH  054%=      5-min Rain = 0
KCO2 170044Z 18007KT 14/05 A3001 RMK A01 T01400050  RH  055%=      5-min Rain = 0
KCO2 170045Z 17007KT 14/05 A3001 RMK A01 T01400051  RH  055%=      5-min Rain = 0
KCO2 170046Z 17007KT 14/05 A3001 RMK A01 T01400051  RH  055%=      5-min Rain = 0
KCO2 170047Z 17008KT 14/05 A3001 RMK A01 T01390051  RH  055%=      5-min Rain = 0
KCO2 170048Z 18008KT 14/05 A3001 RMK A01 T01390051  RH  055%=      5-min Rain = 0
KCO2 170049Z 17008KT 14/05 A3001 RMK A01 T01390051  RH  055%=      5-min Rain = 0
KCO2 170050Z 17008KT 14/05 A3001 RMK A01 T01400052  RH  055%=      5-min Rain = 0
KCO2 170051Z 17008KT 14/05 A3001 RMK A01 T01390051  RH  055%=      5-min Rain = 0
KCO2 170052Z 17008KT 14/05 A3001 RMK A01 T01390051  RH  055%=      5-min Rain = 0
KCO2 170053Z 17008KT 14/05 A3001 RMK A01 T01390051  RH  055%=      5-min Rain = 0
KCO2 170054Z 18007KT 14/05 A3001 RMK A01 T01390051  RH  055%=      5-min Rain = 0
KCO2 170055Z 18007KT 14/05 A3001 RMK A01 T01380051  RH  056%=      5-min Rain = 0
KCO2 170056Z 17006KT 14/05 A3001 RMK A01 T01370051  RH  056%=      5-min Rain = 0
KCO2 170057Z 17007KT 14/05 A3001 RMK A01 T01370051  RH  056%=      5-min Rain = 0
KCO2 170058Z 17007KT 14/05 A3001 RMK A01 T01370051  RH  056%=      5-min Rain = 0
KCO2 170059Z 17006KT 14/05 A3001 RMK A01 T01360051  RH  056%=      5-min Rain = 0
KCO2 170100Z 18007KT 14/05 A3001 RMK A01 T01360050  RH  056%=      5-min Rain = 0
KCO2 170101Z 18007KT 14/05 A3001 RMK A01 T01350050  RH  056%=      5-min Rain = 0
KCO2 170102Z 17007KT 13/05 A3001 RMK A01 T01340050  RH  057%=      5-min Rain = 0
KCO2 170103Z 17007KT 13/05 A3001 RMK A01 T01340050  RH  057%=      5-min Rain = 0
KCO2 170104Z 17008KT 13/05 A3001 RMK A01 T01330049  RH  057%=      5-min Rain = 0
KCO2 170105Z 17007KT 13/05 A3001 RMK A01 T01330050  RH  057%=      5-min Rain = 0
KCO2 170106Z 16007KT 13/05 A3001 RMK A01 T01330050  RH  057%=      5-min Rain = 0
KCO2 170107Z 16007KT 13/05 A3001 RMK A01 T01330049  RH  057%=      5-min Rain = 0
KCO2 170108Z 16007KT 13/05 A3001 RMK A01 T01320049  RH  057%=      5-min Rain = 0
KCO2 170109Z 16006KT 13/05 A3001 RMK A01 T01310049  RH  057%=      5-min Rain = 0
KCO2 170110Z 16007KT 13/05 A3001 RMK A01 T01300048  RH  058%=      5-min Rain = 0
KCO2 170111Z 16007KT 13/05 A3001 RMK A01 T01290048  RH  058%=      5-min Rain = 0
KCO2 170112Z 16007KT 13/05 A3001 RMK A01 T01280048  RH  058%=      5-min Rain = 0
KCO2 170113Z 16007KT 13/05 A3001 RMK A01 T01270048  RH  058%=      5-min Rain = 0
KCO2 170114Z 16007KT 13/05 A3001 RMK A01 T01260048  RH  059%=      5-min Rain = 0
KCO2 170115Z 16007KT 13/05 A3001 RMK A01 T01250048  RH  059%=      5-min Rain = 0
KCO2 170116Z 16007KT 12/05 A3001 RMK A01 T01240047  RH  059%=      5-min Rain = 0
KCO2 170117Z 16007KT 12/05 A3001 RMK A01 T01240047  RH  060%=      5-min Rain = 0
KCO2 170118Z 16008KT 12/05 A3001 RMK A01 T01230047  RH  060%=      5-min Rain = 0
KCO2 170119Z 16007KT 12/05 A3001 RMK A01 T01230047  RH  060%=      5-min Rain = 0
KCO2 170120Z 17007KT 12/05 A3001 RMK A01 T01230047  RH  060%=      5-min Rain = 0
KCO2 170121Z 16007KT 12/05 A3001 RMK A01 T01230047  RH  060%=      5-min Rain = 0
KCO2 170122Z 16006KT 12/05 A3001 RMK A01 T01230047  RH  060%=      5-min Rain = 0
KCO2 170123Z 16007KT 12/05 A3001 RMK A01 T01220047  RH  060%=      5-min Rain = 0
KCO2 170124Z 16007KT 12/05 A3001 RMK A01 T01220047  RH  060%=      5-min Rain = 0
KCO2 170125Z 16007KT 12/05 A3001 RMK A01 T01220047  RH  060%=      5-min Rain = 0
KCO2 170126Z 16006KT 12/05 A3001 RMK A01 T01210046  RH  060%=      5-min Rain = 0
KCO2 170127Z 16007KT 12/05 A3001 RMK A01 T01210046  RH  060%=      5-min Rain = 0
KCO2 170128Z 16006KT 12/05 A3001 RMK A01 T01200046  RH  060%=      5-min Rain = 0
KCO2 170129Z 16007KT 12/05 A3001 RMK A01 T01200046  RH  060%=      5-min Rain = 0
KCO2 170130Z 16007KT 12/05 A3001 RMK A01 T01190046  RH  061%=      5-min Rain = 0
KCO2 170131Z 16007KT 12/05 A3001 RMK A01 T01190046  RH  061%=      5-min Rain = 0
KCO2 170132Z 16007KT 12/05 A3001 RMK A01 T01180046  RH  061%=      5-min Rain = 0
KCO2 170133Z 16007KT 12/05 A3001 RMK A01 T01180045  RH  061%=      5-min Rain = 0
KCO2 170134Z 16007KT 12/05 A3001 RMK A01 T01180046  RH  061%=      5-min Rain = 0
KCO2 170135Z 15007KT 12/05 A3001 RMK A01 T01170046  RH  061%=      5-min Rain = 0
KCO2 170136Z 16007KT 12/05 A3001 RMK A01 T01170045  RH  061%=      5-min Rain = 0
KCO2 170137Z 16007KT 12/05 A3001 RMK A01 T01170045  RH  061%=      5-min Rain = 0
KCO2 170138Z 15007KT 12/05 A3001 RMK A01 T01160045  RH  062%=      5-min Rain = 0
KCO2 170139Z 15007KT 12/05 A3001 RMK A01 T01160045  RH  062%=      5-min Rain = 0
KCO2 170140Z 15007KT 12/05 A3001 RMK A01 T01150045  RH  062%=      5-min Rain = 0
KCO2 170141Z 16007KT 11/05 A3001 RMK A01 T01140045  RH  062%=      5-min Rain = 0
KCO2 170142Z 15007KT 11/05 A3001 RMK A01 T01130045  RH  063%=      5-min Rain = 0
KCO2 170143Z 15007KT 11/05 A3001 RMK A01 T01130045  RH  063%=      5-min Rain = 0
KCO2 170144Z 16007KT 11/05 A3001 RMK A01 T01130045  RH  063%=      5-min Rain = 0
KCO2 170145Z 16007KT 11/05 A3001 RMK A01 T01120045  RH  063%=      5-min Rain = 0
KCO2 170146Z 16007KT 11/05 A3001 RMK A01 T01130045  RH  063%=      5-min Rain = 0
KCO2 170147Z 16007KT 11/05 A3001 RMK A01 T01130045  RH  063%=      5-min Rain = 0
KCO2 170148Z 16007KT 11/05 A3001 RMK A01 T01130045  RH  063%=      5-min Rain = 0
KCO2 170149Z 16007KT 11/05 A3001 RMK A01 T01130045  RH  063%=      5-min Rain = 0
KCO2 170150Z 16007KT 11/05 A3001 RMK A01 T01140045  RH  063%=      5-min Rain = 0
KCO2 170151Z 16007KT 11/05 A3001 RMK A01 T01140045  RH  062%=      5-min Rain = 0
KCO2 170152Z 16007KT 12/05 A3001 RMK A01 T01150045  RH  062%=      5-min Rain = 0
KCO2 170153Z 16008KT 12/05 A3001 RMK A01 T01150045  RH  062%=      5-min Rain = 0
KCO2 170154Z 16007KT 11/05 A3001 RMK A01 T01140045  RH  062%=      5-min Rain = 0
KCO2 170155Z 16006KT 12/05 A3001 RMK A01 T01150045  RH  062%=      5-min Rain = 0
KCO2 170156Z 16007KT 12/05 A3001 RMK A01 T01150045  RH  062%=      5-min Rain = 0
KCO2 170157Z 17007KT 12/05 A3001 RMK A01 T01150045  RH  062%=      5-min Rain = 0
KCO2 170158Z 17007KT 12/04 A3001 RMK A01 T01150044  RH  062%=      5-min Rain = 0
KCO2 170159Z 16006KT 12/04 A3001 RMK A01 T01150044  RH  062%=      5-min Rain = 0
KCO2 170200Z 17007KT 12/04 A3001 RMK A01 T01150044  RH  062%=      5-min Rain = 0
KCO2 170201Z 17006KT 12/04 A3001 RMK A01 T01150044  RH  062%=      5-min Rain = 0
KCO2 170202Z 17007KT 12/04 A3001 RMK A01 T01150044  RH  062%=      5-min Rain = 0
KCO2 170203Z 17007KT 12/04 A3001 RMK A01 T01150044  RH  062%=      5-min Rain = 0
KCO2 170204Z 16008KT 11/04 A3001 RMK A01 T01140044  RH  062%=      5-min Rain = 0
KCO2 170205Z 16008KT 11/04 A3001 RMK A01 T01140044  RH  062%=      5-min Rain = 0
KCO2 170206Z 17007KT 11/04 A3001 RMK A01 T01140044  RH  062%=      5-min Rain = 0
KCO2 170207Z 17007KT 11/04 A3001 RMK A01 T01140044  RH  062%=      5-min Rain = 0
KCO2 170208Z 17007KT 11/04 A3001 RMK A01 T01140044  RH  062%=      5-min Rain = 0
KCO2 170209Z 17007KT 11/04 A3001 RMK A01 T01140044  RH  062%=      5-min Rain = 0
KCO2 170210Z 17007KT 11/04 A3001 RMK A01 T01140044  RH  062%=      5-min Rain = 0
KCO2 170211Z 17007KT 11/04 A3001 RMK A01 T01140044  RH  062%=      5-min Rain = 0
KCO2 170212Z 17007KT 11/04 A3001 RMK A01 T01130044  RH  062%=      5-min Rain = 0
KCO2 170213Z 17007KT 11/04 A3001 RMK A01 T01130044  RH  062%=      5-min Rain = 0
KCO2 170214Z 17007KT 11/04 A3001 RMK A01 T01130043  RH  062%=      5-min Rain = 0
KCO2 170215Z 16007KT 11/04 A3001 RMK A01 T01130044  RH  063%=      5-min Rain = 0
KCO2 170216Z 17008KT 11/04 A3001 RMK A01 T01120043  RH  063%=      5-min Rain = 0
KCO2 170217Z 17007KT 11/04 A3001 RMK A01 T01120043  RH  063%=      5-min Rain = 0
KCO2 170218Z 17007KT 11/04 A3001 RMK A01 T01120043  RH  063%=      5-min Rain = 0
KCO2 170219Z 16008KT 11/04 A3001 RMK A01 T01120043  RH  063%=      5-min Rain = 0
KCO2 170220Z 17008KT 11/04 A3001 RMK A01 T01120043  RH  063%=      5-min Rain = 0
KCO2 170221Z 16007KT 11/04 A3001 RMK A01 T01120043  RH  063%=      5-min Rain = 0
KCO2 170222Z 16007KT 11/04 A3001 RMK A01 T01110043  RH  063%=      5-min Rain = 0
KCO2 170223Z 16007KT 11/04 A3001 RMK A01 T01090042  RH  063%=      5-min Rain = 0
KCO2 170224Z 16007KT 11/04 A30 RMK A01 T01080042  RH  064%=      5-min Rain = 0
KCO2 170225Z 16007KT 11/04 A30 RMK A01 T01060042  RH  064%=      5-min Rain = 0
KCO2 170226Z 16007KT 11/04 A30 RMK A01 T01050042  RH  065%=      5-min Rain = 0
KCO2 170227Z 16007KT 11/04 A30 RMK A01 T01050042  RH  065%=      5-min Rain = 0
KCO2 170228Z 16007KT 10/04 A30 RMK A01 T01040042  RH  065%=      5-min Rain = 0
KCO2 170229Z 16006KT 10/04 A30 RMK A01 T01040042  RH  065%=      5-min Rain = 0
KCO2 170230Z 17006KT 10/04 A30 RMK A01 T01030041  RH  066%=      5-min Rain = 0
KCO2 170231Z 17007KT 10/04 A30 RMK A01 T01020041  RH  066%=      5-min Rain = 0
KCO2 170232Z 17007KT 10/04 A30 RMK A01 T01010041  RH  066%=      5-min Rain = 0
KCO2 170233Z 17007KT 10/04 A30 RMK A01 T01000041  RH  067%=      5-min Rain = 0
KCO2 170234Z 17007KT 10/04 A30 RMK A01 T00990041  RH  067%=      5-min Rain = 0
KCO2 170235Z 17007KT 10/04 A30 RMK A01 T00980040  RH  067%=      5-min Rain = 0
KCO2 170236Z 17007KT 10/04 A3001 RMK A01 T00980041  RH  068%=      5-min Rain = 0
KCO2 170237Z 17007KT 10/04 A3001 RMK A01 T00980041  RH  068%=      5-min Rain = 0
KCO2 170238Z 17007KT 10/04 A3001 RMK A01 T00970041  RH  068%=      5-min Rain = 0
KCO2 170239Z 17007KT 10/04 A3001 RMK A01 T00980041  RH  068%=      5-min Rain = 0
KCO2 170240Z 18006KT 10/04 A3001 RMK A01 T00980041  RH  068%=      5-min Rain = 0
KCO2 170241Z 18007KT 10/04 A3001 RMK A01 T00990042  RH  068%=      5-min Rain = 0
KCO2 170242Z 18007KT 10/04 A3001 RMK A01 T00990042  RH  067%=      5-min Rain = 0
KCO2 170243Z 18007KT 10/04 A3001 RMK A01 T01000042  RH  067%=      5-min Rain = 0
KCO2 170244Z 18007KT 10/04 A3001 RMK A01 T01000042  RH  067%=      5-min Rain = 0
KCO2 170245Z 18006KT 10/04 A3001 RMK A01 T01000042  RH  067%=      5-min Rain = 0
KCO2 170246Z 18008KT 10/04 A3001 RMK A01 T01000042  RH  067%=      5-min Rain = 0
KCO2 170247Z 18007KT 10/04 A3001 RMK A01 T01010043  RH  067%=      5-min Rain = 0
KCO2 170248Z 19007KT 10/04 A3001 RMK A01 T01010042  RH  067%=      5-min Rain = 0
KCO2 170249Z 18007KT 10/04 A3001 RMK A01 T01020043  RH  066%=      5-min Rain = 0
KCO2 170250Z 19006KT 10/04 A3001 RMK A01 T01020042  RH  066%=      5-min Rain = 0
KCO2 170251Z 19006KT 10/04 A3001 RMK A01 T01020042  RH  066%=      5-min Rain = 0
KCO2 170252Z 18007KT 10/04 A3001 RMK A01 T01020042  RH  066%=      5-min Rain = 0
KCO2 170253Z 18007KT 10/04 A3001 RMK A01 T01020042  RH  066%=      5-min Rain = 0
KCO2 170254Z 19007KT 10/04 A3001 RMK A01 T01020042  RH  066%=      5-min Rain = 0
KCO2 170255Z 19007KT 10/04 A3001 RMK A01 T01020042  RH  066%=      5-min Rain = 0
KCO2 170256Z 19006KT 10/04 A3001 RMK A01 T01030042  RH  066%=      5-min Rain = 0
KCO2 170257Z 19006KT 10/04 A3001 RMK A01 T01030042  RH  066%=      5-min Rain = 0
KCO2 170258Z 19006KT 10/04 A3001 RMK A01 T01020042  RH  066%=      5-min Rain = 0
KCO2 170259Z 19006KT 10/04 A3001 RMK A01 T01010042  RH  066%=      5-min Rain = 0
KCO2 170300Z 19006KT 10/04 A3001 RMK A01 T01000041  RH  067%=      5-min Rain = 0
KCO2 170301Z 19006KT 10/04 A3001 RMK A01 T00990041  RH  067%=      5-min Rain = 0
KCO2 170302Z 18007KT 10/04 A3001 RMK A01 T00990042  RH  067%=      5-min Rain = 0
KCO2 170303Z 18006KT 10/04 A3001 RMK A01 T00990042  RH  068%=      5-min Rain = 0
KCO2 170304Z 18007KT 10/04 A3001 RMK A01 T00980041  RH  068%=      5-min Rain = 0
KCO2 170305Z 18007KT 10/04 A3001 RMK A01 T00970041  RH  068%=      5-min Rain = 0
KCO2 170306Z 18006KT 10/04 A3001 RMK A01 T00970042  RH  068%=      5-min Rain = 0
KCO2 170307Z 18007KT 10/04 A3001 RMK A01 T00960041  RH  069%=      5-min Rain = 0
KCO2 170308Z 18007KT 10/04 A3001 RMK A01 T00960041  RH  069%=      5-min Rain = 0
KCO2 170309Z 18006KT 10/04 A3001 RMK A01 T00960042  RH  069%=      5-min Rain = 0
KCO2 170310Z 18007KT 10/04 A3001 RMK A01 T00950041  RH  069%=      5-min Rain = 0
KCO2 170311Z 18006KT 10/04 A3001 RMK A01 T00950041  RH  069%=      5-min Rain = 0
KCO2 170312Z 18006KT 09/04 A3001 RMK A01 T00940041  RH  069%=      5-min Rain = 0
KCO2 170313Z 18006KT 09/04 A3001 RMK A01 T00930041  RH  070%=      5-min Rain = 0
KCO2 170314Z 18007KT 09/04 A3001 RMK A01 T00930041  RH  070%=      5-min Rain = 0
KCO2 170315Z 18007KT 09/04 A3001 RMK A01 T00920041  RH  070%=      5-min Rain = 0
KCO2 170316Z 18007KT 09/04 A3001 RMK A01 T00920041  RH  070%=      5-min Rain = 0
KCO2 170317Z 18006KT 09/04 A3001 RMK A01 T00920041  RH  071%=      5-min Rain = 0
KCO2 170318Z 18007KT 09/04 A3001 RMK A01 T00920041  RH  071%=      5-min Rain = 0
KCO2 170319Z 18007KT 09/04 A3001 RMK A01 T00910041  RH  071%=      5-min Rain = 0
KCO2 170320Z 18007KT 09/04 A3001 RMK A01 T00910041  RH  071%=      5-min Rain = 0
KCO2 170321Z 18007KT 09/04 A3001 RMK A01 T00910041  RH  071%=      5-min Rain = 0
KCO2 170322Z 18007KT 09/04 A3001 RMK A01 T00910041  RH  071%=      5-min Rain = 0
KCO2 170323Z 18007KT 09/04 A3001 RMK A01 T00900041  RH  071%=      5-min Rain = 0
KCO2 170324Z 17007KT 09/04 A3001 RMK A01 T00900040  RH  071%=      5-min Rain = 0
KCO2 170325Z 18007KT 09/04 A3001 RMK A01 T00900041  RH  072%=      5-min Rain = 0
KCO2 170326Z 18007KT 09/04 A3001 RMK A01 T00890041  RH  072%=      5-min Rain = 0
KCO2 170327Z 18007KT 09/04 A3001 RMK A01 T00890041  RH  072%=      5-min Rain = 0
KCO2 170328Z 18006KT 09/04 A3001 RMK A01 T00890041  RH  072%=      5-min Rain = 0
KCO2 170329Z 18006KT 09/04 A3001 RMK A01 T00890041  RH  072%=      5-min Rain = 0
KCO2 170330Z 18006KT 09/04 A3001 RMK A01 T00880041  RH  072%=      5-min Rain = 0
KCO2 170331Z 17007KT 09/04 A3001 RMK A01 T00880040  RH  072%=      5-min Rain = 0
KCO2 170332Z 17007KT 09/04 A3001 RMK A01 T00870040  RH  072%=      5-min Rain = 0
KCO2 170333Z 17007KT 09/04 A3001 RMK A01 T00870040  RH  072%=      5-min Rain = 0
KCO2 170334Z 17007KT 09/04 A3001 RMK A01 T00860040  RH  073%=      5-min Rain = 0
KCO2 170335Z 17007KT 09/04 A3001 RMK A01 T00860040  RH  073%=      5-min Rain = 0
KCO2 170336Z 17008KT 09/04 A3001 RMK A01 T00860040  RH  073%=      5-min Rain = 0
KCO2 170337Z 17008KT 09/04 A3001 RMK A01 T00850040  RH  073%=      5-min Rain = 0
KCO2 170338Z 17008KT 09/04 A3001 RMK A01 T00860040  RH  073%=      5-min Rain = 0
KCO2 170339Z 17007KT 09/04 A3001 RMK A01 T00860040  RH  073%=      5-min Rain = 0
KCO2 170340Z 17007KT 09/04 A3001 RMK A01 T00870040  RH  072%=      5-min Rain = 0
KCO2 170341Z 17007KT 09/04 A3001 RMK A01 T00870040  RH  072%=      5-min Rain = 0
KCO2 170342Z 17007KT 09/04 A3001 RMK A01 T00870040  RH  072%=      5-min Rain = 0
KCO2 170343Z 17007KT 09/04 A3001 RMK A01 T00870040  RH  072%=      5-min Rain = 0
KCO2 170344Z 17007KT 09/04 A3001 RMK A01 T00870039  RH  072%=      5-min Rain = 0
KCO2 170345Z 17006KT 09/04 A3001 RMK A01 T00870039  RH  072%=      5-min Rain = 0
KCO2 170346Z 17006KT 09/04 A3001 RMK A01 T00870039  RH  072%=      5-min Rain = 0
KCO2 170347Z 17006KT 09/04 A3001 RMK A01 T00860039  RH  072%=      5-min Rain = 0
KCO2 170348Z 17006KT 09/04 A3001 RMK A01 T00860039  RH  072%=      5-min Rain = 0
KCO2 170349Z 16006KT 09/04 A3001 RMK A01 T00850039  RH  072%=      5-min Rain = 0
KCO2 170350Z 16007KT 09/04 A3001 RMK A01 T00850038  RH  073%=      5-min Rain = 0
KCO2 170351Z 16007KT 08/04 A3001 RMK A01 T00840038  RH  073%=      5-min Rain = 0
KCO2 170352Z 16007KT 08/04 A3001 RMK A01 T00840038  RH  073%=      5-min Rain = 0
KCO2 170353Z 16007KT 08/04 A3001 RMK A01 T00840038  RH  073%=      5-min Rain = 0
KCO2 170354Z 15007KT 08/04 A3001 RMK A01 T00830037  RH  073%=      5-min Rain = 0
KCO2 170355Z 15007KT 08/04 A3001 RMK A01 T00830037  RH  073%=      5-min Rain = 0
KCO2 170356Z 15007KT 08/04 A3001 RMK A01 T00820037  RH  073%=      5-min Rain = 0
KCO2 170357Z 15007KT 08/04 A3001 RMK A01 T00820037  RH  073%=      5-min Rain = 0
KCO2 170358Z 15007KT 08/04 A3001 RMK A01 T00820037  RH  073%=      5-min Rain = 0
KCO2 170359Z 15007KT 08/04 A3001 RMK A01 T00820037  RH  074%=      5-min Rain = 0
KCO2 170400Z 15007KT 08/04 A3001 RMK A01 T00820037  RH  073%=      5-min Rain = 0
KCO2 170401Z 15007KT 08/04 A3001 RMK A01 T00820037  RH  073%=      5-min Rain = 0
KCO2 170402Z 15007KT 08/04 A3001 RMK A01 T00820037  RH  073%=      5-min Rain = 0
KCO2 170403Z 15008KT 08/04 A30 RMK A01 T00820038  RH  074%=      5-min Rain = 0
KCO2 170404Z 15008KT 08/04 A30 RMK A01 T00820037  RH  074%=      5-min Rain = 0
KCO2 170405Z 15008KT 08/04 A30 RMK A01 T00820037  RH  073%=      5-min Rain = 0
KCO2 170406Z 15008KT 08/04 A30 RMK A01 T00820037  RH  073%=      5-min Rain = 0
KCO2 170407Z 15008KT 08/04 A30 RMK A01 T00820037  RH  073%=      5-min Rain = 0
KCO2 170408Z 15008KT 08/04 A30 RMK A01 T00820037  RH  073%=      5-min Rain = 0
KCO2 170409Z 15007KT 08/04 A30 RMK A01 T00820037  RH  073%=      5-min Rain = 0
KCO2 170410Z 15008KT 08/04 A30 RMK A01 T00820037  RH  073%=      5-min Rain = 0
KCO2 170411Z 15008KT 08/04 A30 RMK A01 T00820037  RH  073%=      5-min Rain = 0
KCO2 170412Z 15007KT 08/04 A30 RMK A01 T00820037  RH  073%=      5-min Rain = 0
KCO2 170413Z 15007KT 08/04 A30 RMK A01 T00830037  RH  073%=      5-min Rain = 0
KCO2 170414Z 16007KT 08/04 A30 RMK A01 T00830037  RH  073%=      5-min Rain = 0
KCO2 170415Z 16006KT 08/04 A30 RMK A01 T00840037  RH  072%=      5-min Rain = 0
KCO2 170416Z 15006KT 08/04 A30 RMK A01 T00840037  RH  072%=      5-min Rain = 0
KCO2 170417Z 16006KT 08/04 A30 RMK A01 T00840037  RH  072%=      5-min Rain = 0
KCO2 170418Z 16006KT 08/04 A30 RMK A01 T00840037  RH  072%=      5-min Rain = 0
KCO2 170419Z 16006KT 08/04 A30 RMK A01 T00840037  RH  072%=      5-min Rain = 0
KCO2 170420Z 16007KT 08/04 A30 RMK A01 T00830036  RH  072%=      5-min Rain = 0
KCO2 170421Z 16007KT 08/04 A30 RMK A01 T00830036  RH  072%=      5-min Rain = 0
KCO2 170422Z 16006KT 08/04 A30 RMK A01 T00840036  RH  072%=      5-min Rain = 0
KCO2 170423Z 16006KT 08/04 A30 RMK A01 T00840036  RH  072%=      5-min Rain = 0
KCO2 170424Z 16006KT 08/04 A30 RMK A01 T00840036  RH  072%=      5-min Rain = 0
KCO2 170425Z 16006KT 08/04 A30 RMK A01 T00840037  RH  072%=      5-min Rain = 0
KCO2 170426Z 17007KT 08/04 A30 RMK A01 T00840037  RH  072%=      5-min Rain = 0
KCO2 170427Z 16006KT 09/04 A30 RMK A01 T00850037  RH  072%=      5-min Rain = 0
KCO2 170428Z 16007KT 09/04 A30 RMK A01 T00850037  RH  072%=      5-min Rain = 0
KCO2 170429Z 17007KT 09/04 A30 RMK A01 T00850037  RH  072%=      5-min Rain = 0
KCO2 170430Z 17007KT 09/04 A30 RMK A01 T00850037  RH  072%=      5-min Rain = 0
KCO2 170431Z 17006KT 08/04 A30 RMK A01 T00840037  RH  072%=      5-min Rain = 0
KCO2 170432Z 17007KT 08/04 A30 RMK A01 T00840037  RH  072%=      5-min Rain = 0
KCO2 170433Z 17007KT 08/04 A30 RMK A01 T00840037  RH  072%=      5-min Rain = 0
KCO2 170434Z 17006KT 08/04 A30 RMK A01 T00840036  RH  072%=      5-min Rain = 0
KCO2 170435Z 17007KT 08/04 A30 RMK A01 T00830037  RH  072%=      5-min Rain = 0
KCO2 170436Z 17007KT 08/04 A30 RMK A01 T00830037  RH  072%=      5-min Rain = 0
KCO2 170437Z 17007KT 08/04 A30 RMK A01 T00840037  RH  072%=      5-min Rain = 0
KCO2 170438Z 17007KT 08/04 A30 RMK A01 T00840037  RH  072%=      5-min Rain = 0
KCO2 170439Z 17007KT 08/04 A30 RMK A01 T00840037  RH  072%=      5-min Rain = 0
KCO2 170440Z 17007KT 08/04 A30 RMK A01 T00840037  RH  072%=      5-min Rain = 0
KCO2 170441Z 17006KT 08/04 A30 RMK A01 T00830037  RH  072%=      5-min Rain = 0
KCO2 170442Z 17007KT 08/04 A30 RMK A01 T00830036  RH  073%=      5-min Rain = 0
KCO2 170443Z 17006KT 08/04 A30 RMK A01 T00830037  RH  073%=      5-min Rain = 0
KCO2 170444Z 17006KT 08/04 A30 RMK A01 T00830037  RH  073%=      5-min Rain = 0
KCO2 170445Z 17006KT 08/04 A30 RMK A01 T00820036  RH  073%=      5-min Rain = 0
KCO2 170446Z 17006KT 08/04 A30 RMK A01 T00830037  RH  073%=      5-min Rain = 0
KCO2 170447Z 18006KT 08/04 A30 RMK A01 T00830037  RH  073%=      5-min Rain = 0
KCO2 170448Z 17007KT 08/04 A30 RMK A01 T00840037  RH  073%=      5-min Rain = 0
KCO2 170449Z 17006KT 08/04 A30 RMK A01 T00840038  RH  072%=      5-min Rain = 0
KCO2 170450Z 17007KT 09/04 A30 RMK A01 T00850038  RH  072%=      5-min Rain = 0
KCO2 170451Z 17007KT 09/04 A30 RMK A01 T00860038  RH  072%=      5-min Rain = 0
KCO2 170452Z 17007KT 09/04 A30 RMK A01 T00860038  RH  072%=      5-min Rain = 0
KCO2 170453Z 17007KT 09/04 A30 RMK A01 T00850038  RH  072%=      5-min Rain = 0
KCO2 170454Z 17007KT 09/04 A30 RMK A01 T00850038  RH  072%=      5-min Rain = 0
KCO2 170455Z 17007KT 09/04 A30 RMK A01 T00850038  RH  072%=      5-min Rain = 0
KCO2 170456Z 18007KT 09/04 A30 RMK A01 T00850038  RH  072%=      5-min Rain = 0
KCO2 170457Z 17009KT 08/04 A30 RMK A01 T00840038  RH  072%=      5-min Rain = 0
KCO2 170458Z 17007KT 09/04 A30 RMK A01 T00850038  RH  073%=      5-min Rain = 0
KCO2 170459Z 17007KT 09/04 A30 RMK A01 T00850039  RH  072%=      5-min Rain = 0
KCO2 170500Z 17006KT 09/04 A30 RMK A01 T00860038  RH  072%=      5-min Rain = 0
KCO2 170501Z 18007KT 09/04 A30 RMK A01 T00860038  RH  072%=      5-min Rain = 0
KCO2 170502Z 18008KT 09/04 A30 RMK A01 T00860038  RH  072%=      5-min Rain = 0
KCO2 170503Z 17007KT 09/04 A30 RMK A01 T00860038  RH  072%=      5-min Rain = 0
KCO2 170504Z 17007KT 09/04 A30 RMK A01 T00870039  RH  072%=      5-min Rain = 0
KCO2 170505Z 17006KT 09/04 A30 RMK A01 T00860038  RH  072%=      5-min Rain = 0
KCO2 170506Z 17006KT 09/04 A30 RMK A01 T00850038  RH  072%=      5-min Rain = 0
KCO2 170507Z 17007KT 08/04 A30 RMK A01 T00840038  RH  072%=      5-min Rain = 0
KCO2 170508Z 17006KT 08/04 A30 RMK A01 T00840037  RH  072%=      5-min Rain = 0
KCO2 170509Z 17006KT 08/04 A30 RMK A01 T00830037  RH  073%=      5-min Rain = 0
KCO2 170510Z 17006KT 08/04 A30 RMK A01 T00820037  RH  073%=      5-min Rain = 0
KCO2 170511Z 17006KT 08/04 A30 RMK A01 T00820037  RH  073%=      5-min Rain = 0
KCO2 170512Z 16006KT 08/04 A30 RMK A01 T00810037  RH  073%=      5-min Rain = 0
KCO2 170513Z 16006KT 08/04 A30 RMK A01 T00810037  RH  074%=      5-min Rain = 0
KCO2 170514Z 17007KT 08/04 A2999 RMK A01 T00810037  RH  074%=      5-min Rain = 0
KCO2 170515Z 17007KT 08/04 A2999 RMK A01 T00810037  RH  074%=      5-min Rain = 0
KCO2 170516Z 17006KT 08/04 A30 RMK A01 T00810037  RH  074%=      5-min Rain = 0
KCO2 170517Z 16007KT 08/04 A30 RMK A01 T00810037  RH  074%=      5-min Rain = 0
KCO2 170518Z 16007KT 08/04 A2999 RMK A01 T00810037  RH  074%=      5-min Rain = 0
KCO2 170519Z 16007KT 08/04 A2999 RMK A01 T00810037  RH  074%=      5-min Rain = 0
KCO2 170520Z 16007KT 08/04 A2999 RMK A01 T00810037  RH  074%=      5-min Rain = 0
KCO2 170521Z 16006KT 08/04 A2999 RMK A01 T00810037  RH  074%=      5-min Rain = 0
KCO2 170522Z 16006KT 08/04 A2999 RMK A01 T00810037  RH  074%=      5-min Rain = 0
KCO2 170523Z 16007KT 08/04 A2999 RMK A01 T00800037  RH  074%=      5-min Rain = 0
KCO2 170524Z 16007KT 08/04 A2999 RMK A01 T00800037  RH  074%=      5-min Rain = 0
KCO2 170525Z 16007KT 08/04 A2999 RMK A01 T00800038  RH  075%=      5-min Rain = 0
KCO2 170526Z 16007KT 08/04 A2999 RMK A01 T00800038  RH  074%=      5-min Rain = 0
KCO2 170527Z 16007KT 08/04 A2999 RMK A01 T00800037  RH  074%=      5-min Rain = 0
KCO2 170528Z 16007KT 08/04 A2999 RMK A01 T00800037  RH  075%=      5-min Rain = 0
KCO2 170529Z 16007KT 08/04 A2999 RMK A01 T00800037  RH  075%=      5-min Rain = 0
KCO2 170530Z 17007KT 08/04 A2999 RMK A01 T00800038  RH  075%=      5-min Rain = 0
KCO2 170531Z 16006KT 08/04 A2999 RMK A01 T00800038  RH  074%=      5-min Rain = 0
KCO2 170532Z 17007KT 08/04 A30 RMK A01 T00810038  RH  074%=      5-min Rain = 0
KCO2 170533Z 16006KT 08/04 A30 RMK A01 T00800038  RH  074%=      5-min Rain = 0
KCO2 170534Z 16006KT 08/04 A30 RMK A01 T00800038  RH  075%=      5-min Rain = 0
KCO2 170535Z 17007KT 08/04 A30 RMK A01 T00790037  RH  075%=      5-min Rain = 0
KCO2 170536Z 17007KT 08/04 A30 RMK A01 T00790037  RH  075%=      5-min Rain = 0
KCO2 170537Z 17007KT 08/04 A30 RMK A01 T00790038  RH  075%=      5-min Rain = 0
KCO2 170538Z 17007KT 08/04 A30 RMK A01 T00800038  RH  075%=      5-min Rain = 0
KCO2 170539Z 17007KT 08/04 A30 RMK A01 T00810038  RH  074%=      5-min Rain = 0
KCO2 170540Z 17007KT 08/04 A30 RMK A01 T00820038  RH  074%=      5-min Rain = 0
KCO2 170541Z 16007KT 08/04 A2999 RMK A01 T00820038  RH  074%=      5-min Rain = 0
KCO2 170542Z 16007KT 08/04 A2999 RMK A01 T00820038  RH  074%=      5-min Rain = 0
KCO2 170543Z 17007KT 08/04 A2999 RMK A01 T00820038  RH  074%=      5-min Rain = 0
KCO2 170544Z 17007KT 08/04 A2999 RMK A01 T00810038  RH  074%=      5-min Rain = 0
KCO2 170545Z 16007KT 08/04 A2999 RMK A01 T00810038  RH  074%=      5-min Rain = 0
KCO2 170546Z 16007KT 08/04 A2999 RMK A01 T00810038  RH  074%=      5-min Rain = 0
KCO2 170547Z 16006KT 08/04 A2999 RMK A01 T00810038  RH  074%=      5-min Rain = 0
KCO2 170548Z 16006KT 08/04 A2999 RMK A01 T00800037  RH  074%=      5-min Rain = 0
KCO2 170549Z 16006KT 08/04 A2999 RMK A01 T00790037  RH  075%=      5-min Rain = 0
KCO2 170550Z 16006KT 08/04 A2999 RMK A01 T00780037  RH  075%=      5-min Rain = 0
KCO2 170551Z 16006KT 08/04 A2999 RMK A01 T00770036  RH  075%=      5-min Rain = 0
KCO2 170552Z 16006KT 08/04 A2999 RMK A01 T00770036  RH  076%=      5-min Rain = 0
KCO2 170553Z 16006KT 08/04 A2999 RMK A01 T00760036  RH  076%=      5-min Rain = 0
KCO2 170554Z 16006KT 08/04 A2999 RMK A01 T00750035  RH  076%=      5-min Rain = 0
KCO2 170555Z 16006KT 07/04 A2999 RMK A01 T00740035  RH  077%=      5-min Rain = 0
KCO2 170556Z 16006KT 07/04 A2999 RMK A01 T00730035  RH  077%=      5-min Rain = 0
KCO2 170557Z 16006KT 07/04 A2999 RMK A01 T00720035  RH  077%=      5-min Rain = 0
KCO2 170558Z 17006KT 07/04 A2999 RMK A01 T00720035  RH  077%=      5-min Rain = 0
KCO2 170559Z 17006KT 07/03 A2999 RMK A01 T00710034  RH  078%=      5-min Rain = 0

Page generated in 0.0721 seconds.